Wetterdaten: Sonntag, 10.01.2016
Datum Zeit Temp. Aussen Temp. o. S. +5cm Feuchte Auss BlattFeu 1 Luftdruck Regen Sonnenschein Regendauer Solar Windben Empfang
10.01.2016 00:00 4,7 C 5,0 C 3,9 C 95 % 0 lf 994,7 hPa 0,0 l/m 0 min 0 min 0 W/m 29,3 km/h (5 Bft) 93,62 %
10.01.2016 00:02 4,7 C 5,6 C 3,9 C 95 % 0 lf 994,6 hPa 0,0 l/m 0 min 0 min 0 W/m 20,9 km/h (4 Bft) 94,74 %
10.01.2016 00:04 4,8 C 5,0 C 3,9 C 95 % 0 lf 994,4 hPa 0,0 l/m 0 min 0 min 0 W/m 25,1 km/h (4 Bft) 91,67 %
10.01.2016 00:06 4,8 C 5,0 C 3,9 C 95 % 0 lf 994,4 hPa 0,0 l/m 0 min 0 min 0 W/m 27,2 km/h (4 Bft) 93,62 %
10.01.2016 00:08 4,8 C 5,0 C 3,9 C 95 % 0 lf 994,4 hPa 0,0 l/m 0 min 0 min 0 W/m 27,2 km/h (4 Bft) 95,74 %
10.01.2016 00:10 4,8 C 5,0 C 3,9 C 95 % 0 lf 994,4 hPa 0,0 l/m 0 min 0 min 0 W/m 27,2 km/h (4 Bft) 93,48 %
10.01.2016 00:12 4,8 C 5,6 C 3,9 C 95 % 0 lf 994,4 hPa 0,0 l/m 0 min 0 min 0 W/m 39,7 km/h (6 Bft) 93,62 %
10.01.2016 00:14 4,9 C 5,6 C 3,9 C 95 % 0 lf 994,3 hPa 0,0 l/m 0 min 0 min 0 W/m 23,0 km/h (4 Bft) 91,49 %
10.01.2016 00:16 4,9 C 5,6 C 3,9 C 95 % 0 lf 994,4 hPa 0,0 l/m 0 min 0 min 0 W/m 27,2 km/h (4 Bft) 95,74 %
10.01.2016 00:18 4,9 C 5,6 C 3,9 C 95 % 0 lf 994,4 hPa 0,0 l/m 0 min 0 min 0 W/m 25,1 km/h (4 Bft) 89,36 %
10.01.2016 00:20 4,9 C 5,6 C 3,9 C 95 % 0 lf 994,4 hPa 0,0 l/m 0 min 0 min 0 W/m 27,2 km/h (4 Bft) 95,74 %
10.01.2016 00:22 4,9 C 5,6 C 3,9 C 95 % 0 lf 994,3 hPa 0,0 l/m 0 min 0 min 0 W/m 31,4 km/h (5 Bft) 93,48 %
10.01.2016 00:24 5,0 C 5,6 C 3,9 C 95 % 0 lf 994,2 hPa 0,0 l/m 0 min 0 min 0 W/m 25,1 km/h (4 Bft) 95,74 %
10.01.2016 00:26 5,0 C 5,6 C 3,9 C 95 % 0 lf 994,1 hPa 0,0 l/m 0 min 0 min 0 W/m 27,2 km/h (4 Bft) 95,74 %
10.01.2016 00:28 5,0 C 5,6 C 3,9 C 95 % 0 lf 994,2 hPa 0,0 l/m 0 min 0 min 0 W/m 20,9 km/h (4 Bft) 95,74 %
10.01.2016 00:30 5,0 C 5,6 C 3,9 C 95 % 0 lf 994,2 hPa 0,0 l/m 0 min 0 min 0 W/m 29,3 km/h (5 Bft) 95,74 %
10.01.2016 00:32 5,0 C 5,0 C 3,9 C 95 % 0 lf 994,1 hPa 0,0 l/m 0 min 0 min 0 W/m 29,3 km/h (5 Bft) 95,74 %
10.01.2016 00:34 5,0 C 5,6 C 3,9 C 95 % 0 lf 994,1 hPa 0,0 l/m 0 min 0 min 0 W/m 29,3 km/h (5 Bft) 93,48 %
10.01.2016 00:36 5,0 C 5,0 C 3,9 C 95 % 0 lf 994,1 hPa 0,0 l/m 0 min 0 min 0 W/m 33,5 km/h (5 Bft) 91,49 %
10.01.2016 00:38 5,0 C 5,0 C 3,9 C 95 % 0 lf 994,0 hPa 0,0 l/m 0 min 0 min 0 W/m 25,1 km/h (4 Bft) 93,62 %
10.01.2016 00:40 5,0 C 5,0 C 3,9 C 95 % 0 lf 994,1 hPa 0,0 l/m 0 min 0 min 0 W/m 20,9 km/h (4 Bft) 93,62 %
10.01.2016 00:42 5,0 C 5,0 C 3,9 C 95 % 0 lf 994,1 hPa 0,0 l/m 0 min 0 min 0 W/m 25,1 km/h (4 Bft) 95,74 %
10.01.2016 00:44 5,0 C 5,0 C 3,9 C 95 % 0 lf 994,1 hPa 0,0 l/m 0 min 0 min 0 W/m 27,2 km/h (4 Bft) 95,65 %
10.01.2016 00:46 5,0 C 5,0 C 3,9 C 95 % 0 lf 994,1 hPa 0,0 l/m 0 min 0 min 0 W/m 23,0 km/h (4 Bft) 95,74 %
10.01.2016 00:48 5,0 C 5,0 C 3,9 C 95 % 0 lf 994,0 hPa 0,0 l/m 0 min 0 min 0 W/m 31,4 km/h (5 Bft) 97,87 %
10.01.2016 00:50 5,0 C 5,0 C 3,9 C 95 % 0 lf 993,9 hPa 0,0 l/m 0 min 0 min 0 W/m 25,1 km/h (4 Bft) 97,87 %
10.01.2016 00:52 5,0 C 5,0 C 3,9 C 95 % 0 lf 994,0 hPa 0,0 l/m 0 min 0 min 0 W/m 27,2 km/h (4 Bft) 97,87 %
10.01.2016 00:54 5,0 C 5,0 C 3,9 C 95 % 0 lf 993,8 hPa 0,0 l/m 0 min 0 min 0 W/m 23,0 km/h (4 Bft) 93,62 %
10.01.2016 00:56 5,0 C 5,0 C 3,9 C 95 % 0 lf 993,8 hPa 0,0 l/m 0 min 0 min 0 W/m 23,0 km/h (4 Bft) 95,74 %
10.01.2016 00:58 5,0 C 5,0 C 3,9 C 95 % 0 lf 993,7 hPa 0,0 l/m 0 min 0 min 0 W/m 25,1 km/h (4 Bft) 95,65 %
10.01.2016 01:00 5,0 C 5,0 C 3,3 C 94 % 0 lf 993,7 hPa 0,0 l/m 0 min 0 min 0 W/m 27,2 km/h (4 Bft) 95,74 %
10.01.2016 01:02 4,9 C 5,0 C 3,9 C 94 % 0 lf 993,7 hPa 0,0 l/m 0 min 0 min 0 W/m 25,1 km/h (4 Bft) 93,62 %
10.01.2016 01:04 5,0 C 5,0 C 3,3 C 94 % 0 lf 993,6 hPa 0,0 l/m 0 min 0 min 0 W/m 29,3 km/h (5 Bft) 97,87 %
10.01.2016 01:06 5,0 C 5,6 C 3,9 C 94 % 0 lf 993,6 hPa 0,0 l/m 0 min 0 min 0 W/m 25,1 km/h (4 Bft) 91,49 %
10.01.2016 01:08 5,0 C 5,6 C 3,9 C 94 % 0 lf 993,6 hPa 0,0 l/m 0 min 0 min 0 W/m 23,0 km/h (4 Bft) 93,48 %
10.01.2016 01:10 5,0 C 5,6 C 3,9 C 94 % 0 lf 993,5 hPa 0,0 l/m 0 min 0 min 0 W/m 23,0 km/h (4 Bft) 93,62 %
10.01.2016 01:12 5,0 C 5,6 C 3,9 C 94 % 0 lf 993,5 hPa 0,0 l/m 0 min 0 min 0 W/m 27,2 km/h (4 Bft) 93,62 %
10.01.2016 01:14 5,0 C 5,6 C 3,9 C 94 % 0 lf 993,4 hPa 0,0 l/m 0 min 0 min 0 W/m 29,3 km/h (5 Bft) 93,62 %
10.01.2016 01:16 5,1 C 5,6 C 3,9 C 94 % 0 lf 993,3 hPa 0,0 l/m 0 min 0 min 0 W/m 23,0 km/h (4 Bft) 95,74 %
10.01.2016 01:18 5,1 C 5,6 C 3,9 C 94 % 0 lf 993,3 hPa 0,0 l/m 0 min 0 min 0 W/m 18,8 km/h (3 Bft) 91,49 %
10.01.2016 01:20 5,1 C 5,6 C 3,9 C 94 % 0 lf 993,3 hPa 0,0 l/m 0 min 0 min 0 W/m 25,1 km/h (4 Bft) 93,48 %
10.01.2016 01:22 5,1 C 5,6 C 3,9 C 94 % 0 lf 993,2 hPa 0,0 l/m 0 min 0 min 0 W/m 20,9 km/h (4 Bft) 95,74 %
10.01.2016 01:24 5,1 C 5,6 C 3,9 C 94 % 0 lf 993,2 hPa 0,0 l/m 0 min 0 min 0 W/m 29,3 km/h (5 Bft) 95,74 %
10.01.2016 01:26 5,1 C 5,0 C 3,9 C 94 % 0 lf 993,1 hPa 0,0 l/m 0 min 0 min 0 W/m 35,6 km/h (5 Bft) 95,74 %
10.01.2016 01:28 5,1 C 5,0 C 3,9 C 94 % 0 lf 993,1 hPa 0,0 l/m 0 min 0 min 0 W/m 23,0 km/h (4 Bft) 97,87 %
10.01.2016 01:30 5,1 C 5,0 C 3,9 C 94 % 0 lf 993,1 hPa 0,0 l/m 0 min 0 min 0 W/m 25,1 km/h (4 Bft) 97,87 %
10.01.2016 01:32 5,1 C 5,0 C 3,9 C 94 % 0 lf 993,1 hPa 0,0 l/m 0 min 0 min 0 W/m 25,1 km/h (4 Bft) 97,83 %
10.01.2016 01:34 5,1 C 5,0 C 3,9 C 94 % 0 lf 993,0 hPa 0,0 l/m 0 min 0 min 0 W/m 18,8 km/h (3 Bft) 95,74 %
10.01.2016 01:36 5,1 C 5,0 C 3,3 C 94 % 0 lf 993,0 hPa 0,0 l/m 0 min 0 min 0 W/m 29,3 km/h (5 Bft) 97,87 %
10.01.2016 01:38 5,1 C 5,0 C 3,9 C 94 % 0 lf 993,0 hPa 0,0 l/m 0 min 0 min 0 W/m 23,0 km/h (4 Bft) 95,74 %
10.01.2016 01:40 5,1 C 5,0 C 3,9 C 94 % 0 lf 993,0 hPa 0,0 l/m 0 min 0 min 0 W/m 16,7 km/h (3 Bft) 95,74 %
10.01.2016 01:42 5,0 C 5,0 C 3,9 C 94 % 0 lf 992,9 hPa 0,0 l/m 0 min 0 min 0 W/m 27,2 km/h (4 Bft) 97,14 %
10.01.2016 01:44 5,1 C 5,6 C 3,9 C 94 % 0 lf 992,8 hPa 0,0 l/m 0 min 0 min 0 W/m 25,1 km/h (4 Bft) 96,67 %
10.01.2016 01:46 5,1 C 5,6 C 3,9 C 94 % 0 lf 992,8 hPa 0,0 l/m 0 min 0 min 0 W/m 31,4 km/h (5 Bft) 93,62 %
10.01.2016 01:48 5,1 C 5,6 C 3,9 C 94 % 0 lf 992,8 hPa 0,0 l/m 0 min 0 min 0 W/m 25,1 km/h (4 Bft) 97,87 %
10.01.2016 01:50 5,1 C 5,6 C 3,9 C 94 % 0 lf 992,7 hPa 0,0 l/m 0 min 0 min 0 W/m 23,0 km/h (4 Bft) 100,00 %
10.01.2016 01:52 5,1 C 5,6 C 3,9 C 94 % 0 lf 992,5 hPa 0,0 l/m 0 min 0 min 0 W/m 25,1 km/h (4 Bft) 95,74 %
10.01.2016 01:54 5,1 C 5,6 C 3,9 C 94 % 0 lf 992,4 hPa 0,0 l/m 0 min 0 min 0 W/m 25,1 km/h (4 Bft) 95,65 %
10.01.2016 01:56 5,1 C 5,6 C 3,9 C 94 % 0 lf 992,4 hPa 0,0 l/m 0 min 0 min 0 W/m 27,2 km/h (4 Bft) 97,87 %
10.01.2016 01:58 5,2 C 5,6 C 3,9 C 94 % 0 lf 992,3 hPa 0,0 l/m 0 min 0 min 0 W/m 27,2 km/h (4 Bft) 97,87 %
10.01.2016 02:00 5,2 C 5,6 C 3,9 C 94 % 0 lf 992,4 hPa 0,0 l/m 0 min 0 min 0 W/m 23,0 km/h (4 Bft) 100,00 %
10.01.2016 02:02 5,2 C 5,6 C 3,9 C 94 % 0 lf 992,4 hPa 0,0 l/m 0 min 0 min 0 W/m 31,4 km/h (5 Bft) 95,74 %
10.01.2016 02:04 5,2 C 5,6 C 4,4 C 94 % 0 lf 992,4 hPa 0,0 l/m 0 min 0 min 0 W/m 31,4 km/h (5 Bft) 100,00 %
10.01.2016 02:06 5,3 C 5,6 C 4,4 C 94 % 0 lf 992,3 hPa 0,0 l/m 0 min 0 min 0 W/m 37,7 km/h (5 Bft) 100,00 %
10.01.2016 02:08 5,3 C 5,6 C 4,4 C 94 % 0 lf 992,3 hPa 0,0 l/m 0 min 0 min 0 W/m 27,2 km/h (4 Bft) 97,87 %
10.01.2016 02:10 5,3 C 5,6 C 4,4 C 94 % 0 lf 992,3 hPa 0,0 l/m 0 min 0 min 0 W/m 27,2 km/h (4 Bft) 95,74 %
10.01.2016 02:12 5,3 C 5,6 C 4,4 C 94 % 0 lf 992,3 hPa 0,0 l/m 0 min 0 min 0 W/m 29,3 km/h (5 Bft) 97,87 %
10.01.2016 02:14 5,3 C 5,6 C 4,4 C 94 % 0 lf 992,3 hPa 0,0 l/m 0 min 0 min 0 W/m 29,3 km/h (5 Bft) 100,00 %
10.01.2016 02:16 5,4 C 5,6 C 4,4 C 94 % 0 lf 992,3 hPa 0,0 l/m 0 min 0 min 0 W/m 29,3 km/h (5 Bft) 100,00 %
10.01.2016 02:18 5,4 C 5,6 C 4,4 C 94 % 0 lf 992,3 hPa 0,0 l/m 0 min 0 min 0 W/m 20,9 km/h (4 Bft) 100,00 %
10.01.2016 02:20 5,4 C 5,6 C 4,4 C 94 % 0 lf 992,2 hPa 0,0 l/m 0 min 0 min 0 W/m 25,1 km/h (4 Bft) 100,00 %
10.01.2016 02:22 5,4 C 6,1 C 4,4 C 94 % 0 lf 992,3 hPa 0,0 l/m 0 min 0 min 0 W/m 25,1 km/h (4 Bft) 95,74 %
10.01.2016 02:24 5,4 C 6,1 C 4,4 C 94 % 0 lf 992,2 hPa 0,0 l/m 0 min 0 min 0 W/m 29,3 km/h (5 Bft) 100,00 %
10.01.2016 02:26 5,4 C 5,6 C 4,4 C 94 % 0 lf 992,3 hPa 0,0 l/m 0 min 2 min 0 W/m 27,2 km/h (4 Bft) 97,87 %
10.01.2016 02:28 5,4 C 5,6 C 4,4 C 94 % 0 lf 992,2 hPa 0,0 l/m 0 min 2 min 0 W/m 20,9 km/h (4 Bft) 100,00 %
10.01.2016 02:30 5,5 C 5,6 C 3,9 C 94 % 0 lf 992,2 hPa 0,0 l/m 0 min 2 min 0 W/m 25,1 km/h (4 Bft) 100,00 %
10.01.2016 02:32 5,5 C 5,6 C 3,9 C 94 % 0 lf 992,2 hPa 0,0 l/m 0 min 2 min 0 W/m 31,4 km/h (5 Bft) 97,87 %
10.01.2016 02:34 5,5 C 5,6 C 3,9 C 94 % 0 lf 992,2 hPa 0,0 l/m 0 min 0 min 0 W/m 20,9 km/h (4 Bft) 97,87 %
10.01.2016 02:36 5,6 C 5,6 C 3,9 C 94 % 0 lf 992,2 hPa 0,0 l/m 0 min 0 min 0 W/m 18,8 km/h (3 Bft) 100,00 %
10.01.2016 02:38 5,6 C 5,6 C 3,9 C 94 % 0 lf 992,2 hPa 0,2 l/m 0 min 2 min 0 W/m 20,9 km/h (4 Bft) 95,74 %
10.01.2016 02:40 5,6 C 5,6 C 3,9 C 94 % 0 lf 992,2 hPa 0,0 l/m 0 min 2 min 0 W/m 27,2 km/h (4 Bft) 97,87 %
10.01.2016 02:42 5,6 C 5,6 C 3,9 C 94 % 0 lf 992,2 hPa 0,0 l/m 0 min 0 min 0 W/m 23,0 km/h (4 Bft) 95,65 %
10.01.2016 02:44 5,6 C 5,6 C 3,9 C 94 % 0 lf 992,2 hPa 0,0 l/m 0 min 2 min 0 W/m 25,1 km/h (4 Bft) 95,74 %
10.01.2016 02:46 5,6 C 5,6 C 3,9 C 94 % 0 lf 992,1 hPa 0,0 l/m 0 min 2 min 0 W/m 25,1 km/h (4 Bft) 93,62 %
10.01.2016 02:48 5,6 C 5,6 C 3,9 C 94 % 0 lf 992,1 hPa 0,0 l/m 0 min 2 min 0 W/m 23,0 km/h (4 Bft) 85,11 %
10.01.2016 02:50 5,6 C 5,6 C 3,9 C 94 % 0 lf 992,1 hPa 0,0 l/m 0 min 2 min 0 W/m 25,1 km/h (4 Bft) 93,62 %
10.01.2016 02:52 5,6 C 5,6 C 3,9 C 94 % 0 lf 992,1 hPa 0,0 l/m 0 min 2 min 0 W/m 33,5 km/h (5 Bft) 91,30 %
10.01.2016 02:54 5,6 C 5,6 C 3,9 C 94 % 0 lf 992,1 hPa 0,0 l/m 0 min 2 min 0 W/m 23,0 km/h (4 Bft) 93,62 %
10.01.2016 02:56 5,6 C 5,6 C 3,9 C 94 % 0 lf 992,1 hPa 0,0 l/m 0 min 2 min 0 W/m 20,9 km/h (4 Bft) 91,49 %
10.01.2016 02:58 5,6 C 5,6 C 3,9 C 94 % 0 lf 992,0 hPa 0,0 l/m 0 min 2 min 0 W/m 29,3 km/h (5 Bft) 91,49 %
10.01.2016 03:00 5,6 C 5,6 C 3,9 C 94 % 0 lf 991,9 hPa 0,0 l/m 0 min 0 min 0 W/m 25,1 km/h (4 Bft) 93,62 %
10.01.2016 03:02 5,6 C 5,6 C 3,9 C 94 % 0 lf 992,0 hPa 0,0 l/m 0 min 2 min 0 W/m 25,1 km/h (4 Bft) 89,36 %
10.01.2016 03:04 5,6 C 5,6 C 3,9 C 94 % 0 lf 992,0 hPa 0,0 l/m 0 min 0 min 0 W/m 20,9 km/h (4 Bft) 93,48 %
10.01.2016 03:06 5,6 C 6,1 C 4,4 C 94 % 0 lf 992,0 hPa 0,0 l/m 0 min 0 min 0 W/m 33,5 km/h (5 Bft) 93,62 %
10.01.2016 03:08 5,6 C 5,6 C 4,4 C 94 % 1 lf 991,9 hPa 0,0 l/m 0 min 0 min 0 W/m 27,2 km/h (4 Bft) 91,49 %
10.01.2016 03:10 5,6 C 5,6 C 4,4 C 94 % 2 lf 991,8 hPa 0,0 l/m 0 min 2 min 0 W/m 25,1 km/h (4 Bft) 93,62 %
10.01.2016 03:12 5,7 C 5,6 C 4,4 C 94 % 2 lf 991,8 hPa 0,0 l/m 0 min 2 min 0 W/m 27,2 km/h (4 Bft) 93,62 %
10.01.2016 03:14 5,7 C 5,6 C 4,4 C 94 % 1 lf 991,6 hPa 0,0 l/m 0 min 2 min 0 W/m 33,5 km/h (5 Bft) 93,62 %
10.01.2016 03:16 5,7 C 5,6 C 4,4 C 94 % 0 lf 991,5 hPa 0,0 l/m 0 min 2 min 0 W/m 35,6 km/h (5 Bft) 93,48 %
10.01.2016 03:18 5,7 C 5,6 C 4,4 C 94 % 0 lf 991,5 hPa 0,0 l/m 0 min 2 min 0 W/m 31,4 km/h (5 Bft) 91,49 %
10.01.2016 03:20 5,7 C 5,6 C 3,9 C 94 % 0 lf 991,4 hPa 0,0 l/m 0 min 2 min 0 W/m 25,1 km/h (4 Bft) 93,62 %
10.01.2016 03:22 5,7 C 5,6 C 4,4 C 94 % 0 lf 991,4 hPa 0,0 l/m 0 min 2 min 0 W/m 23,0 km/h (4 Bft) 95,74 %
10.01.2016 03:24 5,7 C 5,6 C 4,4 C 94 % 0 lf 991,4 hPa 0,0 l/m 0 min 2 min 0 W/m 23,0 km/h (4 Bft) 93,62 %
10.01.2016 03:26 5,7 C 5,6 C 3,9 C 94 % 0 lf 991,4 hPa 0,0 l/m 0 min 2 min 0 W/m 35,6 km/h (5 Bft) 97,87 %
10.01.2016 03:28 5,7 C 5,6 C 4,4 C 94 % 2 lf 991,3 hPa 0,0 l/m 0 min 2 min 0 W/m 33,5 km/h (5 Bft) 97,83 %
10.01.2016 03:30 5,7 C 5,6 C 4,4 C 94 % 1 lf 991,3 hPa 0,0 l/m 0 min 2 min 0 W/m 35,6 km/h (5 Bft) 97,87 %
10.01.2016 03:32 5,8 C 5,6 C 4,4 C 94 % 0 lf 991,3 hPa 0,0 l/m 0 min 2 min 0 W/m 27,2 km/h (4 Bft) 95,74 %
10.01.2016 03:34 5,8 C 5,6 C 4,4 C 94 % 0 lf 991,3 hPa 0,0 l/m 0 min 2 min 0 W/m 27,2 km/h (4 Bft) 97,87 %
10.01.2016 03:36 5,8 C 5,6 C 4,4 C 94 % 0 lf 991,3 hPa 0,0 l/m 0 min 2 min 0 W/m 27,2 km/h (4 Bft) 95,74 %
10.01.2016 03:38 5,8 C 5,6 C 4,4 C 94 % 0 lf 991,2 hPa 0,0 l/m 0 min 2 min 0 W/m 33,5 km/h (5 Bft) 100,00 %
10.01.2016 03:40 5,8 C 6,1 C 4,4 C 94 % 0 lf 991,2 hPa 0,0 l/m 0 min 2 min 0 W/m 18,8 km/h (3 Bft) 100,00 %
10.01.2016 03:42 5,8 C 6,1 C 4,4 C 94 % 0 lf 991,2 hPa 0,0 l/m 0 min 0 min 0 W/m 33,5 km/h (5 Bft) 95,74 %
10.01.2016 03:44 5,8 C 6,1 C 4,4 C 94 % 0 lf 991,2 hPa 0,0 l/m 0 min 2 min 0 W/m 27,2 km/h (4 Bft) 95,74 %
10.01.2016 03:46 5,8 C 6,1 C 4,4 C 94 % 0 lf 991,2 hPa 0,0 l/m 0 min 0 min 0 W/m 29,3 km/h (5 Bft) 95,74 %
10.01.2016 03:48 5,8 C 6,1 C 4,4 C 94 % 0 lf 991,2 hPa 0,0 l/m 0 min 0 min 0 W/m 25,1 km/h (4 Bft) 100,00 %
10.01.2016 03:50 5,8 C 6,1 C 4,4 C 94 % 0 lf 991,2 hPa 0,0 l/m 0 min 2 min 0 W/m 29,3 km/h (5 Bft) 97,87 %
10.01.2016 03:52 5,8 C 6,1 C 4,4 C 94 % 0 lf 991,2 hPa 0,0 l/m 0 min 0 min 0 W/m 16,7 km/h (3 Bft) 97,83 %
10.01.2016 03:54 5,8 C 5,6 C 4,4 C 94 % 1 lf 991,2 hPa 0,0 l/m 0 min 2 min 0 W/m 23,0 km/h (4 Bft) 97,87 %
10.01.2016 03:56 5,9 C 5,6 C 4,4 C 94 % 1 lf 991,2 hPa 0,0 l/m 0 min 2 min 0 W/m 27,2 km/h (4 Bft) 100,00 %
10.01.2016 03:58 5,9 C 5,6 C 4,4 C 94 % 0 lf 991,1 hPa 0,0 l/m 0 min 2 min 0 W/m 16,7 km/h (3 Bft) 97,87 %
10.01.2016 04:00 5,9 C 5,6 C 4,4 C 94 % 0 lf 991,1 hPa 0,0 l/m 0 min 0 min 0 W/m 14,6 km/h (3 Bft) 100,00 %
10.01.2016 04:05 5,9 C 5,6 C 4,4 C 94 % 0 lf 991,0 hPa 0,0 l/m 0 min 2 min 0 W/m 20,9 km/h (4 Bft) 98,44 %
10.01.2016 04:06 5,9 C 5,6 C 4,4 C 94 % 0 lf 991,0 hPa 0,0 l/m 0 min 1 min 0 W/m 20,9 km/h (4 Bft) 100,00 %
10.01.2016 04:08 5,9 C 6,1 C 4,4 C 94 % 0 lf 990,9 hPa 0,0 l/m 0 min 2 min 0 W/m 23,0 km/h (4 Bft) 100,00 %
10.01.2016 04:10 5,9 C 6,1 C 4,4 C 94 % 0 lf 990,9 hPa 0,0 l/m 0 min 2 min 0 W/m 20,9 km/h (4 Bft) 95,74 %
10.01.2016 04:12 5,9 C 6,1 C 4,4 C 94 % 0 lf 990,8 hPa 0,0 l/m 0 min 0 min 0 W/m 23,0 km/h (4 Bft) 100,00 %
10.01.2016 04:14 5,9 C 6,1 C 4,4 C 94 % 0 lf 990,7 hPa 0,0 l/m 0 min 2 min 0 W/m 18,8 km/h (3 Bft) 97,87 %
10.01.2016 04:16 5,9 C 6,1 C 4,4 C 94 % 0 lf 990,7 hPa 0,0 l/m 0 min 0 min 0 W/m 20,9 km/h (4 Bft) 100,00 %
10.01.2016 04:18 5,9 C 6,1 C 4,4 C 94 % 0 lf 990,7 hPa 0,0 l/m 0 min 0 min 0 W/m 25,1 km/h (4 Bft) 100,00 %
10.01.2016 04:20 5,9 C 6,1 C 4,4 C 94 % 0 lf 990,7 hPa 0,0 l/m 0 min 0 min 0 W/m 31,4 km/h (5 Bft) 100,00 %
10.01.2016 04:22 5,9 C 6,1 C 4,4 C 94 % 0 lf 990,6 hPa 0,0 l/m 0 min 0 min 0 W/m 16,7 km/h (3 Bft) 100,00 %
10.01.2016 04:24 5,9 C 6,1 C 4,4 C 94 % 0 lf 990,6 hPa 0,0 l/m 0 min 0 min 0 W/m 18,8 km/h (3 Bft) 100,00 %
10.01.2016 04:26 5,9 C 6,1 C 4,4 C 94 % 0 lf 990,4 hPa 0,0 l/m 0 min 0 min 0 W/m 23,0 km/h (4 Bft) 97,83 %
10.01.2016 04:28 5,9 C 6,1 C 4,4 C 94 % 0 lf 990,3 hPa 0,0 l/m 0 min 0 min 0 W/m 25,1 km/h (4 Bft) 89,36 %
10.01.2016 04:30 5,9 C 6,1 C 4,4 C 94 % 0 lf 990,3 hPa 0,0 l/m 0 min 0 min 0 W/m 16,7 km/h (3 Bft) 97,87 %
10.01.2016 04:32 5,9 C 6,1 C 4,4 C 94 % 0 lf 990,3 hPa 0,0 l/m 0 min 0 min 0 W/m 20,9 km/h (4 Bft) 97,87 %
10.01.2016 04:34 5,9 C 6,1 C 4,4 C 94 % 0 lf 990,4 hPa 0,0 l/m 0 min 0 min 0 W/m 18,8 km/h (3 Bft) 100,00 %
10.01.2016 04:36 5,9 C 6,1 C 4,4 C 94 % 0 lf 990,5 hPa 0,0 l/m 0 min 0 min 0 W/m 16,7 km/h (3 Bft) 100,00 %
10.01.2016 04:38 5,9 C 6,1 C 4,4 C 94 % 0 lf 990,4 hPa 0,0 l/m 0 min 0 min 0 W/m 18,8 km/h (3 Bft) 95,65 %
10.01.2016 04:40 5,9 C 6,1 C 4,4 C 94 % 0 lf 990,5 hPa 0,0 l/m 0 min 0 min 0 W/m 18,8 km/h (3 Bft) 95,74 %
10.01.2016 04:42 5,9 C 6,1 C 4,4 C 94 % 0 lf 990,4 hPa 0,0 l/m 0 min 0 min 0 W/m 14,6 km/h (3 Bft) 91,49 %
10.01.2016 04:44 5,9 C 6,1 C 4,4 C 94 % 0 lf 990,4 hPa 0,0 l/m 0 min 0 min 0 W/m 18,8 km/h (3 Bft) 95,74 %
10.01.2016 04:46 5,9 C 6,1 C 4,4 C 94 % 0 lf 990,4 hPa 0,0 l/m 0 min 0 min 0 W/m 14,6 km/h (3 Bft) 95,74 %
10.01.2016 04:48 5,9 C 6,1 C 4,4 C 94 % 0 lf 990,4 hPa 0,0 l/m 0 min 0 min 0 W/m 16,7 km/h (3 Bft) 93,62 %
10.01.2016 04:50 5,9 C 6,1 C 4,4 C 94 % 0 lf 990,5 hPa 0,0 l/m 0 min 0 min 0 W/m 18,8 km/h (3 Bft) 95,65 %
10.01.2016 04:52 6,0 C 6,1 C 5,0 C 94 % 0 lf 990,5 hPa 0,0 l/m 0 min 0 min 0 W/m 18,8 km/h (3 Bft) 95,74 %
10.01.2016 04:54 6,0 C 6,1 C 5,0 C 95 % 0 lf 990,5 hPa 0,0 l/m 0 min 0 min 0 W/m 16,7 km/h (3 Bft) 95,74 %
10.01.2016 04:56 6,0 C 6,1 C 5,0 C 95 % 0 lf 990,3 hPa 0,0 l/m 0 min 0 min 0 W/m 16,7 km/h (3 Bft) 93,62 %
10.01.2016 04:58 6,0 C 6,1 C 5,0 C 95 % 0 lf 990,4 hPa 0,0 l/m 0 min 0 min 0 W/m 18,8 km/h (3 Bft) 95,74 %
10.01.2016 05:00 6,1 C 6,1 C 5,0 C 95 % 0 lf 990,5 hPa 0,0 l/m 0 min 0 min 0 W/m 14,6 km/h (3 Bft) 93,62 %
10.01.2016 05:02 6,0 C 6,1 C 5,0 C 95 % 0 lf 990,4 hPa 0,0 l/m 0 min 0 min 0 W/m 16,7 km/h (3 Bft) 95,65 %
10.01.2016 05:04 6,1 C 6,1 C 5,0 C 95 % 0 lf 990,5 hPa 0,0 l/m 0 min 0 min 0 W/m 12,6 km/h (3 Bft) 91,49 %
10.01.2016 05:06 6,1 C 6,1 C 5,0 C 95 % 0 lf 990,5 hPa 0,0 l/m 0 min 0 min 0 W/m 14,6 km/h (3 Bft) 91,49 %
10.01.2016 05:08 6,1 C 6,1 C 5,0 C 95 % 0 lf 990,5 hPa 0,0 l/m 0 min 0 min 0 W/m 14,6 km/h (3 Bft) 95,74 %
10.01.2016 05:10 6,1 C 6,1 C 5,0 C 95 % 0 lf 990,6 hPa 0,0 l/m 0 min 0 min 0 W/m 12,6 km/h (3 Bft) 95,74 %
10.01.2016 05:12 6,1 C 6,1 C 4,4 C 95 % 0 lf 990,5 hPa 0,0 l/m 0 min 0 min 0 W/m 16,7 km/h (3 Bft) 97,87 %
10.01.2016 05:14 6,1 C 6,1 C 5,0 C 95 % 0 lf 990,5 hPa 0,0 l/m 0 min 0 min 0 W/m 16,7 km/h (3 Bft) 97,83 %
10.01.2016 05:16 6,1 C 6,1 C 5,0 C 95 % 0 lf 990,5 hPa 0,0 l/m 0 min 0 min 0 W/m 14,6 km/h (3 Bft) 97,87 %
10.01.2016 05:18 6,1 C 6,1 C 5,0 C 95 % 0 lf 990,5 hPa 0,0 l/m 0 min 0 min 0 W/m 10,5 km/h (2 Bft) 95,74 %
10.01.2016 05:20 6,1 C 6,1 C 5,0 C 95 % 0 lf 990,5 hPa 0,0 l/m 0 min 0 min 0 W/m 16,7 km/h (3 Bft) 91,49 %
10.01.2016 05:22 6,1 C 6,1 C 5,0 C 95 % 0 lf 990,5 hPa 0,0 l/m 0 min 0 min 0 W/m 12,6 km/h (3 Bft) 91,49 %
10.01.2016 05:24 6,1 C 6,1 C 5,0 C 95 % 0 lf 990,5 hPa 0,0 l/m 0 min 0 min 0 W/m 12,6 km/h (3 Bft) 93,62 %
10.01.2016 05:26 6,1 C 6,1 C 5,0 C 95 % 0 lf 990,5 hPa 0,0 l/m 0 min 0 min 0 W/m 10,5 km/h (2 Bft) 95,65 %
10.01.2016 05:28 6,1 C 6,1 C 5,0 C 95 % 0 lf 990,4 hPa 0,0 l/m 0 min 0 min 0 W/m 10,5 km/h (2 Bft) 95,74 %
10.01.2016 05:30 6,1 C 6,1 C 5,0 C 95 % 0 lf 990,4 hPa 0,0 l/m 0 min 0 min 0 W/m 10,5 km/h (2 Bft) 91,49 %
10.01.2016 05:32 6,1 C 6,1 C 4,4 C 95 % 0 lf 990,4 hPa 0,0 l/m 0 min 0 min 0 W/m 8,4 km/h (2 Bft) 93,62 %
10.01.2016 05:34 6,1 C 6,1 C 4,4 C 95 % 0 lf 990,4 hPa 0,0 l/m 0 min 0 min 0 W/m 10,5 km/h (2 Bft) 91,49 %
10.01.2016 05:36 6,1 C 6,1 C 4,4 C 95 % 0 lf 990,4 hPa 0,0 l/m 0 min 0 min 0 W/m 10,5 km/h (2 Bft) 93,48 %
10.01.2016 05:38 6,1 C 6,1 C 5,0 C 95 % 0 lf 990,4 hPa 0,0 l/m 0 min 0 min 0 W/m 10,5 km/h (2 Bft) 95,74 %
10.01.2016 05:40 6,1 C 6,1 C 5,0 C 95 % 0 lf 990,5 hPa 0,0 l/m 0 min 0 min 0 W/m 10,5 km/h (2 Bft) 95,74 %
10.01.2016 05:42 6,1 C 6,1 C 5,0 C 95 % 0 lf 990,5 hPa 0,0 l/m 0 min 0 min 0 W/m 10,5 km/h (2 Bft) 95,74 %
10.01.2016 05:44 6,1 C 6,1 C 5,0 C 95 % 0 lf 990,5 hPa 0,0 l/m 0 min 0 min 0 W/m 10,5 km/h (2 Bft) 93,62 %
10.01.2016 05:46 6,1 C 6,7 C 5,0 C 95 % 0 lf 990,5 hPa 0,0 l/m 0 min 0 min 0 W/m 6,3 km/h (2 Bft) 95,74 %
10.01.2016 05:48 6,1 C 6,1 C 5,0 C 95 % 1 lf 990,5 hPa 0,0 l/m 0 min 2 min 0 W/m 6,3 km/h (2 Bft) 93,48 %
10.01.2016 05:50 6,1 C 6,1 C 5,0 C 95 % 3 lf 990,5 hPa 0,0 l/m 0 min 2 min 0 W/m 6,3 km/h (2 Bft) 91,49 %
10.01.2016 05:52 6,1 C 6,1 C 5,0 C 95 % 6 lf 990,5 hPa 0,0 l/m 0 min 2 min 0 W/m 6,3 km/h (2 Bft) 89,36 %
10.01.2016 05:54 6,1 C 6,1 C 4,4 C 95 % 10 lf 990,5 hPa 0,0 l/m 0 min 2 min 0 W/m 8,4 km/h (2 Bft) 95,74 %
10.01.2016 05:56 6,1 C 6,1 C 4,4 C 95 % 15 lf 990,4 hPa 0,0 l/m 0 min 2 min 0 W/m 8,4 km/h (2 Bft) 91,49 %
10.01.2016 05:58 6,1 C 6,1 C 4,4 C 95 % 15 lf 990,4 hPa 0,2 l/m 0 min 2 min 0 W/m 6,3 km/h (2 Bft) 93,62 %
10.01.2016 06:00 6,1 C 6,1 C 4,4 C 95 % 15 lf 990,4 hPa 0,0 l/m 0 min 2 min 0 W/m 6,3 km/h (2 Bft) 95,65 %
10.01.2016 06:02 6,1 C 5,6 C 4,4 C 95 % 15 lf 990,3 hPa 0,2 l/m 0 min 2 min 0 W/m 10,5 km/h (2 Bft) 93,62 %
10.01.2016 06:04 6,2 C 5,6 C 4,4 C 95 % 15 lf 990,4 hPa 0,0 l/m 0 min 2 min 0 W/m 14,6 km/h (3 Bft) 97,87 %
10.01.2016 06:06 6,2 C 6,1 C 4,4 C 95 % 15 lf 990,2 hPa 0,2 l/m 0 min 2 min 0 W/m 6,3 km/h (2 Bft) 93,62 %
10.01.2016 06:08 6,2 C 6,1 C 4,4 C 95 % 15 lf 990,2 hPa 0,0 l/m 0 min 2 min 0 W/m 8,4 km/h (2 Bft) 95,74 %
10.01.2016 06:10 6,2 C 6,1 C 4,4 C 95 % 15 lf 990,2 hPa 0,0 l/m 0 min 2 min 0 W/m 8,4 km/h (2 Bft) 93,62 %
10.01.2016 06:12 6,2 C 6,1 C 5,0 C 95 % 15 lf 990,1 hPa 0,0 l/m 0 min 2 min 0 W/m 12,6 km/h (3 Bft) 97,83 %
10.01.2016 06:14 6,2 C 6,7 C 5,0 C 95 % 15 lf 990,1 hPa 0,0 l/m 0 min 2 min 0 W/m 12,6 km/h (3 Bft) 95,74 %
10.01.2016 06:16 6,3 C 6,7 C 5,0 C 95 % 15 lf 990,1 hPa 0,0 l/m 0 min 2 min 0 W/m 14,6 km/h (3 Bft) 95,74 %
10.01.2016 06:18 6,4 C 6,7 C 5,0 C 95 % 15 lf 990,1 hPa 0,0 l/m 0 min 2 min 0 W/m 16,7 km/h (3 Bft) 97,87 %
10.01.2016 06:20 6,4 C 6,7 C 5,0 C 95 % 15 lf 990,1 hPa 0,0 l/m 0 min 2 min 0 W/m 14,6 km/h (3 Bft) 97,87 %
10.01.2016 06:22 6,4 C 6,7 C 5,0 C 95 % 15 lf 990,2 hPa 0,0 l/m 0 min 2 min 0 W/m 16,7 km/h (3 Bft) 97,87 %
10.01.2016 06:24 6,5 C 6,7 C 5,0 C 95 % 15 lf 990,2 hPa 0,0 l/m 0 min 2 min 0 W/m 16,7 km/h (3 Bft) 91,30 %
10.01.2016 06:26 6,6 C 6,7 C 5,0 C 96 % 15 lf 990,2 hPa 0,0 l/m 0 min 2 min 0 W/m 25,1 km/h (4 Bft) 91,49 %
10.01.2016 06:28 6,7 C 6,7 C 5,0 C 96 % 15 lf 990,3 hPa 0,0 l/m 0 min 2 min 0 W/m 20,9 km/h (4 Bft) 91,49 %
10.01.2016 06:30 6,7 C 6,7 C 5,0 C 96 % 15 lf 990,2 hPa 0,0 l/m 0 min 2 min 0 W/m 18,8 km/h (3 Bft) 93,62 %
10.01.2016 06:32 6,7 C 6,7 C 5,0 C 96 % 15 lf 990,1 hPa 0,0 l/m 0 min 2 min 0 W/m 14,6 km/h (3 Bft) 95,74 %
10.01.2016 06:34 6,8 C 6,7 C 5,0 C 96 % 15 lf 990,1 hPa 0,0 l/m 0 min 2 min 0 W/m 18,8 km/h (3 Bft) 91,30 %
10.01.2016 06:36 6,8 C 6,7 C 5,0 C 96 % 15 lf 990,1 hPa 0,0 l/m 0 min 2 min 0 W/m 12,6 km/h (3 Bft) 95,74 %
10.01.2016 06:38 6,8 C 6,7 C 5,0 C 96 % 15 lf 990,1 hPa 0,2 l/m 0 min 2 min 0 W/m 14,6 km/h (3 Bft) 97,87 %
10.01.2016 06:40 6,8 C 6,7 C 5,0 C 96 % 15 lf 990,2 hPa 0,0 l/m 0 min 2 min 0 W/m 18,8 km/h (3 Bft) 97,87 %
10.01.2016 06:42 6,8 C 6,7 C 5,0 C 96 % 15 lf 990,1 hPa 0,0 l/m 0 min 0 min 0 W/m 12,6 km/h (3 Bft) 95,74 %
10.01.2016 06:44 6,9 C 6,7 C 5,0 C 96 % 15 lf 990,2 hPa 0,0 l/m 0 min 0 min 0 W/m 10,5 km/h (2 Bft) 97,87 %
10.01.2016 06:46 6,9 C 6,7 C 5,0 C 96 % 15 lf 990,2 hPa 0,0 l/m 0 min 0 min 0 W/m 10,5 km/h (2 Bft) 95,65 %
10.01.2016 06:48 6,9 C 6,7 C 5,0 C 96 % 15 lf 990,3 hPa 0,0 l/m 0 min 0 min 0 W/m 14,6 km/h (3 Bft) 97,87 %
10.01.2016 06:50 6,9 C 6,7 C 5,0 C 96 % 15 lf 990,3 hPa 0,0 l/m 0 min 0 min 0 W/m 10,5 km/h (2 Bft) 97,87 %
10.01.2016 06:52 6,9 C 6,7 C 5,0 C 96 % 15 lf 990,5 hPa 0,0 l/m 0 min 0 min 0 W/m 12,6 km/h (3 Bft) 95,74 %
10.01.2016 06:54 6,9 C 6,7 C 5,0 C 96 % 15 lf 990,5 hPa 0,0 l/m 0 min 0 min 0 W/m 16,7 km/h (3 Bft) 93,62 %
10.01.2016 06:56 6,9 C 6,7 C 5,0 C 96 % 15 lf 990,5 hPa 0,0 l/m 0 min 0 min 0 W/m 16,7 km/h (3 Bft) 100,00 %
10.01.2016 06:58 6,9 C 6,7 C 5,0 C 96 % 15 lf 990,5 hPa 0,0 l/m 0 min 0 min 0 W/m 14,6 km/h (3 Bft) 97,83 %
10.01.2016 07:00 6,8 C 6,7 C 5,0 C 96 % 15 lf 990,5 hPa 0,0 l/m 0 min 0 min 0 W/m 10,5 km/h (2 Bft) 97,87 %
10.01.2016 07:02 6,8 C 6,1 C 5,0 C 96 % 15 lf 990,6 hPa 0,0 l/m 0 min 0 min 0 W/m 14,6 km/h (3 Bft) 100,00 %
10.01.2016 07:04 6,8 C 6,1 C 5,0 C 96 % 15 lf 990,6 hPa 0,0 l/m 0 min 0 min 0 W/m 12,6 km/h (3 Bft) 100,00 %
10.01.2016 07:06 6,8 C 6,1 C 5,0 C 96 % 15 lf 990,6 hPa 0,0 l/m 0 min 0 min 0 W/m 14,6 km/h (3 Bft) 100,00 %
10.01.2016 07:08 6,8 C 6,1 C 5,0 C 96 % 15 lf 990,6 hPa 0,0 l/m 0 min 0 min 0 W/m 12,6 km/h (3 Bft) 100,00 %
10.01.2016 07:10 6,8 C 6,1 C 4,4 C 96 % 15 lf 990,6 hPa 0,0 l/m 0 min 0 min 0 W/m 14,6 km/h (3 Bft) 100,00 %
10.01.2016 07:12 6,7 C 6,1 C 4,4 C 96 % 15 lf 990,6 hPa 0,0 l/m 0 min 0 min 0 W/m 20,9 km/h (4 Bft) 100,00 %
10.01.2016 07:14 6,7 C 6,1 C 5,0 C 96 % 15 lf 990,6 hPa 0,0 l/m 0 min 0 min 0 W/m 20,9 km/h (4 Bft) 97,87 %
10.01.2016 07:16 6,7 C 6,1 C 5,0 C 96 % 15 lf 990,6 hPa 0,0 l/m 0 min 0 min 0 W/m 20,9 km/h (4 Bft) 100,00 %
10.01.2016 07:18 6,7 C 6,1 C 4,4 C 96 % 15 lf 990,6 hPa 0,0 l/m 0 min 0 min 0 W/m 14,6 km/h (3 Bft) 91,49 %
10.01.2016 07:20 6,7 C 6,1 C 5,0 C 96 % 15 lf 990,6 hPa 0,0 l/m 0 min 0 min 0 W/m 20,9 km/h (4 Bft) 100,00 %
10.01.2016 07:22 6,7 C 6,1 C 5,0 C 96 % 15 lf 990,7 hPa 0,0 l/m 0 min 0 min 0 W/m 18,8 km/h (3 Bft) 100,00 %
10.01.2016 07:24 6,7 C 6,1 C 5,0 C 96 % 15 lf 990,7 hPa 0,0 l/m 0 min 0 min 0 W/m 16,7 km/h (3 Bft) 97,87 %
10.01.2016 07:26 6,6 C 6,1 C 5,0 C 95 % 15 lf 990,7 hPa 0,0 l/m 0 min 0 min 0 W/m 16,7 km/h (3 Bft) 100,00 %
10.01.2016 07:28 6,6 C 6,1 C 5,0 C 95 % 15 lf 990,8 hPa 0,0 l/m 0 min 0 min 0 W/m 18,8 km/h (3 Bft) 100,00 %
10.01.2016 07:30 6,6 C 6,1 C 5,0 C 95 % 15 lf 990,8 hPa 0,0 l/m 0 min 0 min 0 W/m 23,0 km/h (4 Bft) 97,87 %
10.01.2016 07:32 6,6 C 6,1 C 5,0 C 95 % 15 lf 990,8 hPa 0,0 l/m 0 min 0 min 0 W/m 16,7 km/h (3 Bft) 100,00 %
10.01.2016 07:34 6,6 C 6,1 C 5,0 C 95 % 15 lf 990,9 hPa 0,0 l/m 0 min 0 min 0 W/m 23,0 km/h (4 Bft) 100,00 %
10.01.2016 07:36 6,6 C 6,1 C 4,4 C 95 % 15 lf 990,8 hPa 0,0 l/m 0 min 0 min 0 W/m 14,6 km/h (3 Bft) 100,00 %
10.01.2016 07:38 6,6 C 6,1 C 4,4 C 95 % 15 lf 990,9 hPa 0,0 l/m 0 min 0 min 0 W/m 23,0 km/h (4 Bft) 100,00 %
10.01.2016 07:40 6,6 C 6,1 C 4,4 C 95 % 15 lf 990,9 hPa 0,0 l/m 0 min 0 min 0 W/m 18,8 km/h (3 Bft) 100,00 %
10.01.2016 07:42 6,6 C 6,1 C 5,0 C 95 % 15 lf 991,0 hPa 0,0 l/m 0 min 0 min 0 W/m 27,2 km/h (4 Bft) 97,87 %
10.01.2016 07:44 6,7 C 6,1 C 5,0 C 95 % 14 lf 991,0 hPa 0,0 l/m 0 min 0 min 0 W/m 18,8 km/h (3 Bft) 100,00 %
10.01.2016 07:46 6,7 C 6,7 C 5,0 C 95 % 13 lf 991,1 hPa 0,0 l/m 0 min 0 min 0 W/m 25,1 km/h (4 Bft) 97,87 %
10.01.2016 07:48 6,7 C 6,7 C 5,0 C 95 % 12 lf 991,1 hPa 0,0 l/m 0 min 0 min 0 W/m 25,1 km/h (4 Bft) 97,87 %
10.01.2016 07:50 6,7 C 6,7 C 5,0 C 95 % 10 lf 991,2 hPa 0,0 l/m 0 min 0 min 0 W/m 25,1 km/h (4 Bft) 97,87 %
10.01.2016 07:52 6,7 C 6,7 C 5,0 C 94 % 9 lf 991,0 hPa 0,0 l/m 0 min 0 min 0 W/m 18,8 km/h (3 Bft) 97,87 %
10.01.2016 07:54 6,7 C 6,7 C 5,0 C 94 % 5 lf 991,0 hPa 0,0 l/m 0 min 0 min 0 W/m 18,8 km/h (3 Bft) 95,74 %
10.01.2016 07:56 6,8 C 6,7 C 5,0 C 94 % 3 lf 991,0 hPa 0,0 l/m 0 min 0 min 0 W/m 25,1 km/h (4 Bft) 100,00 %
10.01.2016 07:58 6,8 C 6,7 C 5,0 C 94 % 2 lf 991,0 hPa 0,0 l/m 0 min 0 min 0 W/m 16,7 km/h (3 Bft) 95,74 %
10.01.2016 08:00 6,8 C 6,7 C 5,0 C 94 % 1 lf 991,0 hPa 0,0 l/m 0 min 0 min 0 W/m 18,8 km/h (3 Bft) 97,87 %
10.01.2016 08:02 6,8 C 6,7 C 5,0 C 94 % 0 lf 991,1 hPa 0,0 l/m 0 min 0 min 0 W/m 16,7 km/h (3 Bft) 93,62 %
10.01.2016 08:04 6,8 C 6,7 C 5,0 C 94 % 0 lf 991,1 hPa 0,0 l/m 0 min 0 min 0 W/m 18,8 km/h (3 Bft) 97,87 %
10.01.2016 08:06 6,8 C 6,7 C 5,0 C 93 % 0 lf 991,1 hPa 0,0 l/m 0 min 0 min 0 W/m 25,1 km/h (4 Bft) 95,74 %
10.01.2016 08:08 6,8 C 6,7 C 5,0 C 94 % 0 lf 991,1 hPa 0,0 l/m 0 min 0 min 0 W/m 20,9 km/h (4 Bft) 97,83 %
10.01.2016 08:10 6,8 C 6,7 C 5,0 C 93 % 0 lf 991,0 hPa 0,0 l/m 0 min 0 min 0 W/m 16,7 km/h (3 Bft) 97,87 %
10.01.2016 08:12 6,8 C 6,7 C 5,0 C 93 % 0 lf 991,0 hPa 0,0 l/m 0 min 0 min 0 W/m 25,1 km/h (4 Bft) 95,74 %
10.01.2016 08:14 6,8 C 6,7 C 5,0 C 93 % 0 lf 991,0 hPa 0,0 l/m 0 min 0 min 0 W/m 18,8 km/h (3 Bft) 93,62 %
10.01.2016 08:16 6,9 C 6,7 C 5,0 C 93 % 0 lf 991,0 hPa 0,0 l/m 0 min 0 min 0 W/m 12,6 km/h (3 Bft) 95,74 %
10.01.2016 08:18 6,9 C 6,7 C 5,0 C 93 % 0 lf 991,1 hPa 0,0 l/m 0 min 0 min 0 W/m 12,6 km/h (3 Bft) 95,74 %
10.01.2016 08:20 6,9 C 6,7 C 5,0 C 93 % 0 lf 991,2 hPa 0,0 l/m 0 min 0 min 0 W/m 29,3 km/h (5 Bft) 89,13 %
10.01.2016 08:22 6,9 C 7,2 C 5,0 C 92 % 0 lf 991,2 hPa 0,0 l/m 0 min 0 min 0 W/m 23,0 km/h (4 Bft) 95,74 %
10.01.2016 08:24 6,9 C 7,2 C 5,0 C 92 % 0 lf 991,2 hPa 0,0 l/m 0 min 0 min 0 W/m 20,9 km/h (4 Bft) 93,62 %
10.01.2016 08:26 6,9 C 7,2 C 5,0 C 92 % 0 lf 991,3 hPa 0,0 l/m 0 min 0 min 0 W/m 25,1 km/h (4 Bft) 91,49 %
10.01.2016 08:28 6,9 C 7,2 C 5,0 C 92 % 0 lf 991,3 hPa 0,0 l/m 0 min 0 min 3 W/m 18,8 km/h (3 Bft) 93,62 %
10.01.2016 08:30 6,9 C 7,2 C 5,0 C 92 % 0 lf 991,3 hPa 0,0 l/m 0 min 0 min 5 W/m 16,7 km/h (3 Bft) 95,74 %
10.01.2016 08:32 7,0 C 7,2 C 4,4 C 91 % 0 lf 991,2 hPa 0,0 l/m 0 min 0 min 5 W/m 12,6 km/h (3 Bft) 93,48 %
10.01.2016 08:34 6,9 C 6,7 C 4,4 C 91 % 0 lf 991,3 hPa 0,0 l/m 0 min 0 min 6 W/m 16,7 km/h (3 Bft) 95,74 %
10.01.2016 08:36 6,9 C 6,7 C 4,4 C 91 % 0 lf 991,3 hPa 0,0 l/m 0 min 0 min 7 W/m 23,0 km/h (4 Bft) 95,74 %
10.01.2016 08:38 6,9 C 6,7 C 4,4 C 91 % 0 lf 991,3 hPa 0,0 l/m 0 min 0 min 7 W/m 18,8 km/h (3 Bft) 95,74 %
10.01.2016 08:40 6,9 C 6,7 C 4,4 C 91 % 0 lf 991,4 hPa 0,0 l/m 0 min 0 min 7 W/m 20,9 km/h (4 Bft) 95,74 %
10.01.2016 08:42 6,9 C 6,7 C 4,4 C 91 % 0 lf 991,4 hPa 0,0 l/m 0 min 0 min 8 W/m 14,6 km/h (3 Bft) 89,36 %
10.01.2016 08:44 6,9 C 6,7 C 4,4 C 90 % 0 lf 991,4 hPa 0,0 l/m 0 min 0 min 9 W/m 14,6 km/h (3 Bft) 95,65 %
10.01.2016 08:46 6,9 C 6,7 C 4,4 C 90 % 0 lf 991,5 hPa 0,0 l/m 0 min 0 min 9 W/m 18,8 km/h (3 Bft) 100,00 %
10.01.2016 08:48 6,9 C 6,7 C 4,4 C 90 % 0 lf 991,5 hPa 0,0 l/m 0 min 0 min 10 W/m 16,7 km/h (3 Bft) 95,74 %
10.01.2016 08:50 6,8 C 6,7 C 4,4 C 90 % 0 lf 991,5 hPa 0,0 l/m 0 min 0 min 11 W/m 18,8 km/h (3 Bft) 97,87 %
10.01.2016 08:52 6,8 C 6,7 C 4,4 C 89 % 0 lf 991,6 hPa 0,0 l/m 0 min 0 min 11 W/m 12,6 km/h (3 Bft) 97,87 %
10.01.2016 08:54 6,8 C 6,7 C 3,9 C 89 % 0 lf 991,6 hPa 0,0 l/m 0 min 0 min 13 W/m 20,9 km/h (4 Bft) 95,65 %
10.01.2016 08:56 6,8 C 6,7 C 3,9 C 89 % 0 lf 991,6 hPa 0,0 l/m 0 min 0 min 16 W/m 14,6 km/h (3 Bft) 95,74 %
10.01.2016 08:58 6,8 C 6,7 C 3,9 C 89 % 0 lf 991,6 hPa 0,0 l/m 0 min 0 min 18 W/m 12,6 km/h (3 Bft) 97,87 %
10.01.2016 09:00 6,8 C 6,7 C 3,9 C 89 % 0 lf 991,6 hPa 0,0 l/m 2 min 0 min 21 W/m 10,5 km/h (2 Bft) 89,36 %
10.01.2016 09:02 6,8 C 6,7 C 3,9 C 89 % 0 lf 991,7 hPa 0,0 l/m 2 min 0 min 22 W/m 14,6 km/h (3 Bft) 91,49 %
10.01.2016 09:04 6,7 C 6,1 C 3,9 C 89 % 0 lf 991,7 hPa 0,0 l/m 0 min 0 min 23 W/m 16,7 km/h (3 Bft) 97,87 %
10.01.2016 09:06 6,7 C 6,7 C 3,9 C 89 % 0 lf 991,6 hPa 0,0 l/m 0 min 0 min 24 W/m 16,7 km/h (3 Bft) 95,74 %
10.01.2016 09:08 6,7 C 6,7 C 3,9 C 89 % 0 lf 991,7 hPa 0,0 l/m 0 min 0 min 26 W/m 25,1 km/h (4 Bft) 93,48 %
10.01.2016 09:10 6,7 C 6,7 C 3,9 C 89 % 0 lf 991,7 hPa 0,0 l/m 0 min 0 min 26 W/m 20,9 km/h (4 Bft) 95,74 %
10.01.2016 09:12 6,7 C 6,7 C 3,9 C 89 % 0 lf 991,7 hPa 0,0 l/m 0 min 0 min 27 W/m 16,7 km/h (3 Bft) 93,62 %
10.01.2016 09:14 6,6 C 6,7 C 3,9 C 89 % 0 lf 991,6 hPa 0,0 l/m 0 min 0 min 27 W/m 25,1 km/h (4 Bft) 93,62 %
10.01.2016 09:16 6,6 C 6,7 C 3,9 C 89 % 0 lf 991,6 hPa 0,0 l/m 0 min 0 min 28 W/m 27,2 km/h (4 Bft) 95,74 %
10.01.2016 09:18 6,6 C 6,7 C 3,9 C 89 % 0 lf 991,7 hPa 0,0 l/m 0 min 0 min 31 W/m 16,7 km/h (3 Bft) 93,48 %
10.01.2016 09:20 6,6 C 6,7 C 3,9 C 89 % 0 lf 991,8 hPa 0,0 l/m 0 min 0 min 31 W/m 16,7 km/h (3 Bft) 91,49 %
10.01.2016 09:22 6,5 C 6,7 C 3,9 C 89 % 0 lf 991,9 hPa 0,0 l/m 0 min 0 min 22 W/m 14,6 km/h (3 Bft) 95,74 %
10.01.2016 09:24 6,5 C 6,7 C 3,9 C 89 % 0 lf 992,0 hPa 0,0 l/m 0 min 0 min 22 W/m 27,2 km/h (4 Bft) 93,62 %
10.01.2016 09:26 6,5 C 6,7 C 3,9 C 89 % 0 lf 992,1 hPa 0,0 l/m 0 min 0 min 23 W/m 12,6 km/h (3 Bft) 95,74 %
10.01.2016 09:28 6,4 C 6,7 C 3,9 C 89 % 0 lf 992,1 hPa 0,0 l/m 0 min 0 min 24 W/m 27,2 km/h (4 Bft) 93,62 %
10.01.2016 09:30 6,4 C 6,1 C 3,9 C 88 % 0 lf 992,2 hPa 0,0 l/m 0 min 0 min 26 W/m 16,7 km/h (3 Bft) 95,65 %
10.01.2016 09:32 6,4 C 6,7 C 3,9 C 88 % 0 lf 992,2 hPa 0,0 l/m 0 min 0 min 28 W/m 14,6 km/h (3 Bft) 95,74 %
10.01.2016 09:34 6,4 C 6,1 C 3,9 C 88 % 0 lf 992,3 hPa 0,0 l/m 0 min 0 min 28 W/m 16,7 km/h (3 Bft) 93,62 %
10.01.2016 09:36 6,4 C 6,7 C 3,9 C 88 % 0 lf 992,3 hPa 0,0 l/m 0 min 0 min 38 W/m 18,8 km/h (3 Bft) 93,62 %
10.01.2016 09:38 6,4 C 6,7 C 3,9 C 88 % 0 lf 992,2 hPa 0,0 l/m 0 min 0 min 54 W/m 14,6 km/h (3 Bft) 95,74 %
10.01.2016 09:40 6,4 C 6,1 C 3,9 C 88 % 0 lf 992,3 hPa 0,0 l/m 2 min 0 min 62 W/m 14,6 km/h (3 Bft) 93,62 %
10.01.2016 09:42 6,3 C 6,1 C 3,9 C 88 % 0 lf 992,1 hPa 0,0 l/m 2 min 0 min 66 W/m 16,7 km/h (3 Bft) 93,48 %
10.01.2016 09:44 6,3 C 6,1 C 3,9 C 88 % 0 lf 992,2 hPa 0,0 l/m 2 min 0 min 69 W/m 14,6 km/h (3 Bft) 95,74 %
10.01.2016 09:46 6,3 C 6,7 C 3,9 C 88 % 0 lf 992,1 hPa 0,0 l/m 2 min 0 min 72 W/m 18,8 km/h (3 Bft) 95,74 %
10.01.2016 09:48 6,3 C 6,7 C 3,9 C 88 % 0 lf 992,1 hPa 0,0 l/m 2 min 0 min 75 W/m 18,8 km/h (3 Bft) 95,74 %
10.01.2016 09:50 6,3 C 6,7 C 3,9 C 88 % 0 lf 992,1 hPa 0,0 l/m 2 min 0 min 78 W/m 18,8 km/h (3 Bft) 93,62 %
10.01.2016 09:52 6,3 C 6,7 C 3,9 C 88 % 0 lf 992,1 hPa 0,0 l/m 2 min 0 min 82 W/m 12,6 km/h (3 Bft) 93,62 %
10.01.2016 09:54 6,3 C 6,7 C 3,9 C 88 % 0 lf 992,2 hPa 0,0 l/m 2 min 0 min 85 W/m 16,7 km/h (3 Bft) 93,48 %
10.01.2016 09:56 6,3 C 6,7 C 3,9 C 88 % 0 lf 992,2 hPa 0,0 l/m 2 min 0 min 89 W/m 16,7 km/h (3 Bft) 95,74 %
10.01.2016 09:58 6,3 C 6,7 C 3,9 C 88 % 0 lf 992,2 hPa 0,0 l/m 2 min 0 min 91 W/m 16,7 km/h (3 Bft) 97,87 %
10.01.2016 10:00 6,3 C 6,7 C 3,9 C 88 % 0 lf 992,3 hPa 0,0 l/m 2 min 0 min 95 W/m 16,7 km/h (3 Bft) 91,49 %
10.01.2016 10:02 6,3 C 6,7 C 3,9 C 88 % 0 lf 992,2 hPa 0,0 l/m 2 min 0 min 98 W/m 18,8 km/h (3 Bft) 93,62 %
10.01.2016 10:04 6,3 C 6,7 C 3,9 C 88 % 0 lf 992,3 hPa 0,0 l/m 2 min 0 min 102 W/m 18,8 km/h (3 Bft) 93,62 %
10.01.2016 10:06 6,3 C 6,7 C 3,9 C 88 % 0 lf 992,3 hPa 0,0 l/m 2 min 0 min 106 W/m 18,8 km/h (3 Bft) 91,30 %
10.01.2016 10:08 6,3 C 6,7 C 4,4 C 88 % 0 lf 992,3 hPa 0,0 l/m 2 min 0 min 109 W/m 25,1 km/h (4 Bft) 95,74 %
10.01.2016 10:10 6,3 C 7,2 C 4,4 C 88 % 0 lf 992,3 hPa 0,0 l/m 2 min 0 min 113 W/m 25,1 km/h (4 Bft) 93,62 %
10.01.2016 10:12 6,4 C 7,2 C 4,4 C 89 % 0 lf 992,4 hPa 0,0 l/m 2 min 0 min 116 W/m 29,3 km/h (5 Bft) 91,49 %
10.01.2016 10:14 6,4 C 7,2 C 4,4 C 89 % 0 lf 992,3 hPa 0,0 l/m 2 min 0 min 119 W/m 25,1 km/h (4 Bft) 95,74 %
10.01.2016 10:16 6,4 C 7,2 C 4,4 C 88 % 0 lf 992,3 hPa 0,0 l/m 2 min 0 min 123 W/m 23,0 km/h (4 Bft) 93,48 %
10.01.2016 10:18 6,4 C 7,2 C 4,4 C 88 % 0 lf 992,4 hPa 0,0 l/m 2 min 0 min 126 W/m 27,2 km/h (4 Bft) 95,74 %
10.01.2016 10:20 6,4 C 7,2 C 4,4 C 88 % 0 lf 992,4 hPa 0,0 l/m 2 min 0 min 129 W/m 20,9 km/h (4 Bft) 97,87 %
10.01.2016 10:22 6,4 C 7,2 C 4,4 C 88 % 0 lf 992,4 hPa 0,0 l/m 2 min 0 min 132 W/m 18,8 km/h (3 Bft) 91,49 %
10.01.2016 10:24 6,4 C 7,2 C 4,4 C 88 % 0 lf 992,4 hPa 0,0 l/m 2 min 0 min 135 W/m 35,6 km/h (5 Bft) 97,87 %
10.01.2016 10:26 6,4 C 7,2 C 4,4 C 88 % 0 lf 992,5 hPa 0,0 l/m 2 min 0 min 138 W/m 33,5 km/h (5 Bft) 95,74 %
10.01.2016 10:28 6,5 C 7,2 C 4,4 C 88 % 0 lf 992,5 hPa 0,0 l/m 2 min 0 min 141 W/m 29,3 km/h (5 Bft) 93,48 %
10.01.2016 10:30 6,5 C 7,2 C 4,4 C 88 % 0 lf 992,6 hPa 0,0 l/m 2 min 0 min 143 W/m 20,9 km/h (4 Bft) 91,49 %
10.01.2016 10:32 6,6 C 7,2 C 4,4 C 88 % 0 lf 992,6 hPa 0,0 l/m 2 min 0 min 148 W/m 23,0 km/h (4 Bft) 93,62 %
10.01.2016 10:34 6,6 C 7,2 C 4,4 C 88 % 0 lf 992,7 hPa 0,0 l/m 2 min 0 min 151 W/m 20,9 km/h (4 Bft) 95,74 %
10.01.2016 10:36 6,6 C 7,2 C 4,4 C 88 % 0 lf 992,8 hPa 0,0 l/m 2 min 0 min 154 W/m 18,8 km/h (3 Bft) 93,62 %
10.01.2016 10:38 6,6 C 7,8 C 4,4 C 88 % 0 lf 992,9 hPa 0,0 l/m 2 min 0 min 158 W/m 20,9 km/h (4 Bft) 95,74 %
10.01.2016 10:40 6,7 C 7,8 C 4,4 C 87 % 0 lf 992,8 hPa 0,0 l/m 2 min 0 min 162 W/m 23,0 km/h (4 Bft) 95,65 %
10.01.2016 10:42 6,7 C 7,8 C 4,4 C 87 % 0 lf 992,7 hPa 0,0 l/m 2 min 0 min 165 W/m 18,8 km/h (3 Bft) 95,74 %
10.01.2016 10:44 6,7 C 7,8 C 4,4 C 87 % 0 lf 992,6 hPa 0,0 l/m 2 min 0 min 168 W/m 16,7 km/h (3 Bft) 97,87 %
10.01.2016 10:46 6,7 C 8,3 C 4,4 C 87 % 0 lf 992,5 hPa 0,0 l/m 2 min 0 min 172 W/m 14,6 km/h (3 Bft) 95,74 %
10.01.2016 10:48 6,8 C 8,9 C 4,4 C 87 % 0 lf 992,5 hPa 0,0 l/m 2 min 0 min 175 W/m 20,9 km/h (4 Bft) 95,74 %
10.01.2016 10:50 6,8 C 10,0 C 4,4 C 87 % 0 lf 992,6 hPa 0,0 l/m 2 min 0 min 179 W/m 14,6 km/h (3 Bft) 95,74 %
10.01.2016 10:52 6,8 C 10,6 C 4,4 C 87 % 0 lf 992,6 hPa 0,0 l/m 2 min 0 min 183 W/m 16,7 km/h (3 Bft) 97,83 %
10.01.2016 10:54 6,8 C 11,1 C 4,4 C 87 % 0 lf 992,7 hPa 0,0 l/m 2 min 0 min 186 W/m 18,8 km/h (3 Bft) 95,74 %
10.01.2016 10:56 6,9 C 10,6 C 4,4 C 87 % 0 lf 992,7 hPa 0,0 l/m 2 min 0 min 188 W/m 23,0 km/h (4 Bft) 97,87 %
10.01.2016 10:58 6,9 C 11,7 C 4,4 C 87 % 0 lf 992,7 hPa 0,0 l/m 2 min 0 min 192 W/m 29,3 km/h (5 Bft) 97,87 %
10.01.2016 11:00 7,0 C 11,1 C 4,4 C 86 % 0 lf 992,5 hPa 0,0 l/m 2 min 0 min 193 W/m 27,2 km/h (4 Bft) 97,87 %
10.01.2016 11:02 7,0 C 11,7 C 5,0 C 86 % 0 lf 992,7 hPa 0,0 l/m 2 min 0 min 193 W/m 18,8 km/h (3 Bft) 97,87 %
10.01.2016 11:04 7,1 C 12,8 C 4,4 C 86 % 0 lf 992,6 hPa 0,0 l/m 2 min 0 min 195 W/m 14,6 km/h (3 Bft) 97,83 %
10.01.2016 11:06 7,2 C 12,2 C 5,0 C 86 % 0 lf 992,7 hPa 0,0 l/m 2 min 0 min 198 W/m 31,4 km/h (5 Bft) 95,74 %
10.01.2016 11:08 7,2 C 12,8 C 5,0 C 86 % 0 lf 992,7 hPa 0,0 l/m 2 min 0 min 200 W/m 25,1 km/h (4 Bft) 95,74 %
10.01.2016 11:10 7,3 C 13,3 C 5,0 C 85 % 0 lf 992,5 hPa 0,0 l/m 2 min 0 min 202 W/m 18,8 km/h (3 Bft) 95,74 %
10.01.2016 11:12 7,3 C 12,8 C 5,0 C 85 % 0 lf 992,6 hPa 0,0 l/m 2 min 0 min 204 W/m 23,0 km/h (4 Bft) 97,87 %
10.01.2016 11:14 7,4 C 12,8 C 5,0 C 85 % 0 lf 992,5 hPa 0,0 l/m 2 min 0 min 207 W/m 25,1 km/h (4 Bft) 95,65 %
10.01.2016 11:16 7,4 C 13,3 C 5,0 C 84 % 0 lf 992,5 hPa 0,0 l/m 2 min 0 min 210 W/m 18,8 km/h (3 Bft) 97,87 %
10.01.2016 11:18 7,6 C 14,4 C 5,0 C 84 % 0 lf 992,5 hPa 0,0 l/m 2 min 0 min 213 W/m 14,6 km/h (3 Bft) 97,87 %
10.01.2016 11:20 7,6 C 13,9 C 5,0 C 84 % 0 lf 992,5 hPa 0,0 l/m 2 min 0 min 217 W/m 16,7 km/h (3 Bft) 97,87 %
10.01.2016 11:22 7,7 C 13,9 C 5,0 C 84 % 0 lf 992,4 hPa 0,0 l/m 2 min 0 min 219 W/m 25,1 km/h (4 Bft) 95,74 %
10.01.2016 11:24 7,7 C 13,9 C 5,0 C 84 % 0 lf 992,4 hPa 0,0 l/m 2 min 0 min 221 W/m 20,9 km/h (4 Bft) 100,00 %
10.01.2016 11:26 7,8 C 13,9 C 5,0 C 83 % 0 lf 992,4 hPa 0,0 l/m 2 min 0 min 222 W/m 18,8 km/h (3 Bft) 100,00 %
10.01.2016 11:28 7,9 C 14,4 C 5,0 C 83 % 0 lf 992,4 hPa 0,0 l/m 2 min 0 min 224 W/m 14,6 km/h (3 Bft) 97,83 %
10.01.2016 11:30 7,9 C 13,9 C 5,0 C 83 % 0 lf 992,4 hPa 0,0 l/m 2 min 0 min 225 W/m 23,0 km/h (4 Bft) 100,00 %
10.01.2016 11:32 8,0 C 14,4 C 5,0 C 83 % 0 lf 992,4 hPa 0,0 l/m 2 min 0 min 228 W/m 14,6 km/h (3 Bft) 100,00 %
10.01.2016 11:34 8,1 C 15,0 C 5,0 C 82 % 0 lf 992,4 hPa 0,0 l/m 2 min 0 min 229 W/m 14,6 km/h (3 Bft) 97,87 %
10.01.2016 11:36 8,2 C 13,9 C 5,0 C 82 % 0 lf 992,4 hPa 0,0 l/m 2 min 0 min 232 W/m 18,8 km/h (3 Bft) 97,87 %
10.01.2016 11:38 8,2 C 15,0 C 5,0 C 81 % 0 lf 992,4 hPa 0,0 l/m 2 min 0 min 235 W/m 16,7 km/h (3 Bft) 100,00 %
10.01.2016 11:40 8,3 C 15,6 C 5,0 C 81 % 0 lf 992,4 hPa 0,0 l/m 2 min 0 min 237 W/m 16,7 km/h (3 Bft) 97,87 %
10.01.2016 11:42 8,3 C 15,0 C 5,0 C 81 % 0 lf 992,5 hPa 0,0 l/m 2 min 0 min 239 W/m 23,0 km/h (4 Bft) 95,74 %
10.01.2016 11:44 8,3 C 13,9 C 5,0 C 80 % 0 lf 992,5 hPa 0,0 l/m 2 min 0 min 241 W/m 20,9 km/h (4 Bft) 95,74 %
10.01.2016 11:46 8,4 C 15,6 C 5,6 C 80 % 0 lf 992,5 hPa 0,0 l/m 2 min 0 min 241 W/m 14,6 km/h (3 Bft) 95,74 %
10.01.2016 11:48 8,4 C 15,6 C 5,6 C 80 % 0 lf 992,5 hPa 0,0 l/m 2 min 0 min 242 W/m 14,6 km/h (3 Bft) 95,74 %
10.01.2016 11:50 8,5 C 15,6 C 5,6 C 80 % 0 lf 992,5 hPa 0,0 l/m 2 min 0 min 243 W/m 18,8 km/h (3 Bft) 95,65 %
10.01.2016 11:52 8,6 C 15,0 C 5,6 C 80 % 0 lf 992,5 hPa 0,0 l/m 2 min 0 min 244 W/m 23,0 km/h (4 Bft) 95,74 %
10.01.2016 11:54 8,6 C 14,4 C 5,6 C 79 % 0 lf 992,5 hPa 0,0 l/m 2 min 0 min 245 W/m 18,8 km/h (3 Bft) 95,74 %
10.01.2016 11:56 8,7 C 14,4 C 5,6 C 79 % 0 lf 992,5 hPa 0,0 l/m 2 min 0 min 247 W/m 25,1 km/h (4 Bft) 93,62 %
10.01.2016 11:58 8,7 C 13,9 C 5,6 C 78 % 0 lf 992,5 hPa 0,0 l/m 2 min 0 min 250 W/m 29,3 km/h (5 Bft) 95,74 %
10.01.2016 12:00 8,7 C 14,4 C 5,6 C 78 % 0 lf 992,6 hPa 0,0 l/m 2 min 0 min 250 W/m 23,0 km/h (4 Bft) 97,87 %
10.01.2016 12:02 8,7 C 15,6 C 5,6 C 78 % 0 lf 992,5 hPa 0,0 l/m 2 min 0 min 250 W/m 14,6 km/h (3 Bft) 95,65 %
10.01.2016 12:04 8,8 C 15,0 C 5,6 C 78 % 0 lf 992,5 hPa 0,0 l/m 2 min 0 min 251 W/m 27,2 km/h (4 Bft) 95,74 %
10.01.2016 12:06 8,8 C 15,0 C 5,6 C 78 % 0 lf 992,5 hPa 0,0 l/m 2 min 0 min 251 W/m 27,2 km/h (4 Bft) 95,74 %
10.01.2016 12:08 8,9 C 14,4 C 5,6 C 77 % 0 lf 992,6 hPa 0,0 l/m 2 min 0 min 251 W/m 25,1 km/h (4 Bft) 97,87 %
10.01.2016 12:10 8,9 C 15,0 C 5,6 C 77 % 0 lf 992,5 hPa 0,0 l/m 2 min 0 min 253 W/m 18,8 km/h (3 Bft) 95,74 %
10.01.2016 12:12 9,0 C 15,6 C 6,1 C 77 % 0 lf 992,6 hPa 0,0 l/m 2 min 0 min 253 W/m 16,7 km/h (3 Bft) 95,74 %
10.01.2016 12:14 9,0 C 15,0 C 6,1 C 77 % 0 lf 992,5 hPa 0,0 l/m 2 min 0 min 253 W/m 27,2 km/h (4 Bft) 95,65 %
10.01.2016 12:16 9,0 C 15,0 C 6,1 C 76 % 0 lf 992,8 hPa 0,0 l/m 2 min 0 min 253 W/m 27,2 km/h (4 Bft) 93,62 %
10.01.2016 12:18 9,0 C 13,9 C 6,1 C 76 % 0 lf 992,8 hPa 0,0 l/m 2 min 0 min 254 W/m 27,2 km/h (4 Bft) 93,62 %
10.01.2016 12:20 9,1 C 13,9 C 6,1 C 76 % 0 lf 992,9 hPa 0,0 l/m 2 min 0 min 255 W/m 14,6 km/h (3 Bft) 93,62 %
10.01.2016 12:22 9,1 C 14,4 C 6,1 C 76 % 0 lf 992,8 hPa 0,0 l/m 2 min 0 min 253 W/m 12,6 km/h (3 Bft) 93,62 %
10.01.2016 12:24 9,1 C 15,0 C 6,1 C 76 % 0 lf 992,8 hPa 0,0 l/m 2 min 0 min 256 W/m 14,6 km/h (3 Bft) 95,74 %
10.01.2016 12:26 9,2 C 15,6 C 6,7 C 76 % 0 lf 992,8 hPa 0,0 l/m 2 min 0 min 257 W/m 14,6 km/h (3 Bft) 95,65 %
10.01.2016 12:28 9,2 C 15,0 C 6,7 C 76 % 0 lf 992,8 hPa 0,0 l/m 2 min 0 min 257 W/m 16,7 km/h (3 Bft) 91,49 %
10.01.2016 12:30 9,2 C 15,6 C 6,7 C 76 % 0 lf 992,7 hPa 0,0 l/m 2 min 0 min 257 W/m 14,6 km/h (3 Bft) 97,87 %
10.01.2016 12:32 9,2 C 16,1 C 6,7 C 76 % 0 lf 992,6 hPa 0,0 l/m 2 min 0 min 258 W/m 18,8 km/h (3 Bft) 95,74 %
10.01.2016 12:34 9,3 C 15,6 C 6,7 C 75 % 0 lf 992,6 hPa 0,0 l/m 2 min 0 min 258 W/m 18,8 km/h (3 Bft) 97,87 %
10.01.2016 12:36 9,3 C 13,3 C 6,7 C 75 % 0 lf 992,5 hPa 0,0 l/m 2 min 0 min 258 W/m 25,1 km/h (4 Bft) 97,87 %
10.01.2016 12:38 9,3 C 12,2 C 6,7 C 74 % 0 lf 992,5 hPa 0,0 l/m 2 min 0 min 258 W/m 29,3 km/h (5 Bft) 95,65 %
10.01.2016 12:40 9,3 C 11,7 C 6,7 C 74 % 0 lf 992,4 hPa 0,0 l/m 2 min 0 min 253 W/m 31,4 km/h (5 Bft) 97,87 %
10.01.2016 12:42 9,3 C 11,7 C 7,2 C 74 % 0 lf 992,5 hPa 0,0 l/m 2 min 0 min 254 W/m 23,0 km/h (4 Bft) 91,49 %
10.01.2016 12:44 9,3 C 11,7 C 7,2 C 73 % 0 lf 992,5 hPa 0,0 l/m 2 min 0 min 253 W/m 31,4 km/h (5 Bft) 95,74 %
10.01.2016 12:46 9,3 C 12,2 C 7,2 C 73 % 0 lf 992,5 hPa 0,0 l/m 2 min 0 min 254 W/m 29,3 km/h (5 Bft) 93,62 %
10.01.2016 12:48 9,3 C 12,2 C 7,2 C 73 % 0 lf 992,5 hPa 0,0 l/m 2 min 0 min 246 W/m 18,8 km/h (3 Bft) 93,48 %
10.01.2016 12:50 9,3 C 13,3 C 7,2 C 73 % 0 lf 992,4 hPa 0,0 l/m 2 min 0 min 245 W/m 31,4 km/h (5 Bft) 97,87 %
10.01.2016 12:52 9,3 C 12,8 C 7,2 C 73 % 0 lf 992,4 hPa 0,0 l/m 2 min 0 min 252 W/m 37,7 km/h (5 Bft) 95,74 %
10.01.2016 12:54 9,3 C 12,8 C 7,2 C 73 % 0 lf 992,4 hPa 0,0 l/m 2 min 0 min 252 W/m 35,6 km/h (5 Bft) 95,74 %
10.01.2016 12:56 9,3 C 12,8 C 7,2 C 73 % 0 lf 992,4 hPa 0,0 l/m 2 min 0 min 251 W/m 37,7 km/h (5 Bft) 97,87 %
10.01.2016 12:58 9,3 C 12,8 C 7,2 C 72 % 0 lf 992,5 hPa 0,0 l/m 2 min 0 min 250 W/m 33,5 km/h (5 Bft) 95,74 %
10.01.2016 13:00 9,3 C 12,8 C 7,2 C 72 % 0 lf 992,5 hPa 0,0 l/m 2 min 0 min 246 W/m 33,5 km/h (5 Bft) 97,83 %
10.01.2016 13:02 9,3 C 13,3 C 7,2 C 72 % 0 lf 992,4 hPa 0,0 l/m 2 min 0 min 251 W/m 27,2 km/h (4 Bft) 97,87 %
10.01.2016 13:04 9,3 C 13,3 C 7,2 C 72 % 0 lf 992,3 hPa 0,0 l/m 2 min 0 min 255 W/m 25,1 km/h (4 Bft) 95,74 %
10.01.2016 13:06 9,3 C 13,3 C 7,2 C 72 % 0 lf 992,2 hPa 0,0 l/m 2 min 0 min 257 W/m 27,2 km/h (4 Bft) 97,87 %
10.01.2016 13:08 9,3 C 13,9 C 7,2 C 72 % 0 lf 992,3 hPa 0,0 l/m 2 min 0 min 257 W/m 23,0 km/h (4 Bft) 97,87 %
10.01.2016 13:10 9,3 C 14,4 C 7,2 C 72 % 0 lf 992,2 hPa 0,0 l/m 2 min 0 min 257 W/m 16,7 km/h (3 Bft) 100,00 %
10.01.2016 13:12 9,4 C 14,4 C 7,8 C 72 % 0 lf 992,2 hPa 0,0 l/m 2 min 0 min 255 W/m 27,2 km/h (4 Bft) 97,83 %
10.01.2016 13:14 9,4 C 14,4 C 7,8 C 72 % 0 lf 992,2 hPa 0,0 l/m 2 min 0 min 256 W/m 27,2 km/h (4 Bft) 95,74 %
10.01.2016 13:16 9,4 C 13,9 C 7,8 C 72 % 0 lf 992,2 hPa 0,0 l/m 2 min 0 min 256 W/m 23,0 km/h (4 Bft) 95,74 %
10.01.2016 13:18 9,4 C 13,9 C 7,8 C 71 % 0 lf 992,2 hPa 0,0 l/m 2 min 0 min 253 W/m 31,4 km/h (5 Bft) 97,87 %
10.01.2016 13:20 9,5 C 14,4 C 7,8 C 71 % 0 lf 992,2 hPa 0,0 l/m 2 min 0 min 253 W/m 27,2 km/h (4 Bft) 97,87 %
10.01.2016 13:22 9,5 C 13,3 C 7,8 C 71 % 0 lf 992,1 hPa 0,0 l/m 2 min 0 min 250 W/m 33,5 km/h (5 Bft) 95,74 %
10.01.2016 13:24 9,6 C 13,9 C 7,8 C 70 % 0 lf 992,0 hPa 0,0 l/m 2 min 0 min 248 W/m 18,8 km/h (3 Bft) 95,65 %
10.01.2016 13:26 9,6 C 13,3 C 7,8 C 70 % 0 lf 992,0 hPa 0,0 l/m 2 min 0 min 245 W/m 31,4 km/h (5 Bft) 95,74 %
10.01.2016 13:28 9,6 C 14,4 C 7,8 C 70 % 0 lf 992,1 hPa 0,0 l/m 2 min 0 min 244 W/m 31,4 km/h (5 Bft) 95,74 %
10.01.2016 13:30 9,6 C 13,9 C 7,8 C 70 % 0 lf 992,0 hPa 0,0 l/m 2 min 0 min 242 W/m 23,0 km/h (4 Bft) 95,74 %
10.01.2016 13:32 9,6 C 15,0 C 7,8 C 70 % 0 lf 992,0 hPa 0,0 l/m 2 min 0 min 239 W/m 12,6 km/h (3 Bft) 95,74 %
10.01.2016 13:34 9,7 C 14,4 C 7,8 C 70 % 0 lf 992,0 hPa 0,0 l/m 2 min 0 min 237 W/m 23,0 km/h (4 Bft) 95,74 %
10.01.2016 13:36 9,7 C 12,8 C 7,8 C 70 % 0 lf 991,9 hPa 0,0 l/m 2 min 0 min 232 W/m 31,4 km/h (5 Bft) 97,83 %
10.01.2016 13:38 9,7 C 13,3 C 7,8 C 69 % 0 lf 992,2 hPa 0,0 l/m 2 min 0 min 229 W/m 25,1 km/h (4 Bft) 97,87 %
10.01.2016 13:40 9,7 C 13,3 C 7,8 C 69 % 0 lf 992,2 hPa 0,0 l/m 2 min 0 min 226 W/m 39,7 km/h (6 Bft) 100,00 %
10.01.2016 13:42 9,7 C 13,9 C 7,8 C 69 % 0 lf 992,1 hPa 0,0 l/m 2 min 0 min 221 W/m 29,3 km/h (5 Bft) 97,87 %
10.01.2016 13:44 9,7 C 13,9 C 7,8 C 69 % 0 lf 992,2 hPa 0,0 l/m 2 min 0 min 221 W/m 29,3 km/h (5 Bft) 100,00 %
10.01.2016 13:46 9,7 C 14,4 C 7,8 C 69 % 0 lf 992,1 hPa 0,0 l/m 2 min 0 min 217 W/m 23,0 km/h (4 Bft) 97,87 %
10.01.2016 13:48 9,7 C 15,0 C 7,8 C 69 % 0 lf 992,1 hPa 0,0 l/m 2 min 0 min 214 W/m 25,1 km/h (4 Bft) 95,65 %
10.01.2016 13:50 9,7 C 15,6 C 7,8 C 69 % 0 lf 992,1 hPa 0,0 l/m 2 min 0 min 212 W/m 16,7 km/h (3 Bft) 97,87 %
10.01.2016 13:52 9,7 C 15,6 C 7,8 C 69 % 0 lf 992,2 hPa 0,0 l/m 2 min 0 min 210 W/m 18,8 km/h (3 Bft) 97,87 %
10.01.2016 13:54 9,8 C 15,0 C 7,8 C 69 % 0 lf 992,2 hPa 0,0 l/m 2 min 0 min 208 W/m 20,9 km/h (4 Bft) 97,87 %
10.01.2016 13:56 9,8 C 14,4 C 7,8 C 69 % 0 lf 992,2 hPa 0,0 l/m 2 min 0 min 207 W/m 29,3 km/h (5 Bft) 95,74 %
10.01.2016 13:58 9,8 C 15,0 C 7,8 C 69 % 0 lf 992,2 hPa 0,0 l/m 2 min 0 min 205 W/m 23,0 km/h (4 Bft) 100,00 %
10.01.2016 14:00 9,8 C 14,4 C 7,8 C 69 % 0 lf 992,1 hPa 0,0 l/m 2 min 0 min 201 W/m 29,3 km/h (5 Bft) 100,00 %
10.01.2016 14:02 9,8 C 14,4 C 7,8 C 69 % 0 lf 992,0 hPa 0,0 l/m 2 min 0 min 197 W/m 31,4 km/h (5 Bft) 100,00 %
10.01.2016 14:04 9,8 C 14,4 C 7,8 C 69 % 0 lf 992,0 hPa 0,0 l/m 2 min 0 min 187 W/m 16,7 km/h (3 Bft) 97,87 %
10.01.2016 14:06 9,8 C 14,4 C 7,8 C 69 % 0 lf 991,9 hPa 0,0 l/m 2 min 0 min 190 W/m 23,0 km/h (4 Bft) 100,00 %
10.01.2016 14:08 9,9 C 14,4 C 7,8 C 69 % 0 lf 992,0 hPa 0,0 l/m 2 min 0 min 191 W/m 23,0 km/h (4 Bft) 97,87 %
10.01.2016 14:10 9,9 C 13,9 C 7,8 C 68 % 0 lf 992,0 hPa 0,0 l/m 2 min 0 min 188 W/m 33,5 km/h (5 Bft) 97,83 %
10.01.2016 14:12 9,9 C 14,4 C 7,8 C 68 % 0 lf 991,9 hPa 0,0 l/m 2 min 0 min 180 W/m 20,9 km/h (4 Bft) 97,87 %
10.01.2016 14:14 9,9 C 15,0 C 7,8 C 68 % 0 lf 991,9 hPa 0,0 l/m 2 min 0 min 155 W/m 31,4 km/h (5 Bft) 95,74 %
10.01.2016 14:16 9,8 C 14,4 C 7,8 C 68 % 0 lf 991,9 hPa 0,0 l/m 2 min 0 min 162 W/m 33,5 km/h (5 Bft) 89,36 %
10.01.2016 14:18 9,8 C 15,0 C 7,8 C 68 % 0 lf 991,8 hPa 0,0 l/m 2 min 0 min 176 W/m 18,8 km/h (3 Bft) 97,87 %
10.01.2016 14:20 9,8 C 15,6 C 7,8 C 68 % 0 lf 991,7 hPa 0,0 l/m 2 min 0 min 167 W/m 16,7 km/h (3 Bft) 97,87 %
10.01.2016 14:22 9,8 C 15,6 C 7,8 C 69 % 0 lf 991,8 hPa 0,0 l/m 2 min 0 min 160 W/m 23,0 km/h (4 Bft) 93,48 %
10.01.2016 14:24 9,8 C 14,4 C 7,8 C 69 % 0 lf 991,8 hPa 0,0 l/m 2 min 0 min 163 W/m 29,3 km/h (5 Bft) 93,62 %
10.01.2016 14:26 9,8 C 14,4 C 7,8 C 69 % 0 lf 991,8 hPa 0,0 l/m 2 min 0 min 165 W/m 33,5 km/h (5 Bft) 93,62 %
10.01.2016 14:28 9,8 C 13,9 C 7,8 C 69 % 0 lf 991,8 hPa 0,0 l/m 2 min 0 min 166 W/m 31,4 km/h (5 Bft) 95,74 %
10.01.2016 14:30 9,8 C 14,4 C 7,8 C 69 % 0 lf 991,8 hPa 0,0 l/m 2 min 0 min 160 W/m 27,2 km/h (4 Bft) 93,62 %
10.01.2016 14:32 9,7 C 12,2 C 7,2 C 69 % 0 lf 991,7 hPa 0,0 l/m 0 min 0 min 86 W/m 25,1 km/h (4 Bft) 93,62 %
10.01.2016 14:34 9,7 C 11,1 C 7,2 C 70 % 0 lf 991,7 hPa 0,0 l/m 0 min 0 min 69 W/m 37,7 km/h (5 Bft) 93,48 %
10.01.2016 14:36 9,6 C 10,6 C 7,2 C 69 % 0 lf 991,7 hPa 0,0 l/m 0 min 0 min 59 W/m 37,7 km/h (5 Bft) 95,74 %
10.01.2016 14:38 9,5 C 10,0 C 7,2 C 69 % 0 lf 991,7 hPa 0,0 l/m 0 min 0 min 49 W/m 20,9 km/h (4 Bft) 93,62 %
10.01.2016 14:40 9,4 C 9,4 C 6,7 C 70 % 0 lf 991,6 hPa 0,0 l/m 0 min 0 min 43 W/m 29,3 km/h (5 Bft) 95,74 %
10.01.2016 14:42 9,3 C 9,4 C 6,7 C 70 % 0 lf 991,7 hPa 0,0 l/m 0 min 0 min 43 W/m 23,0 km/h (4 Bft) 95,74 %
10.01.2016 14:44 9,3 C 9,4 C 6,7 C 70 % 0 lf 991,7 hPa 0,0 l/m 0 min 0 min 44 W/m 18,8 km/h (3 Bft) 97,87 %
10.01.2016 14:46 9,2 C 8,9 C 6,7 C 70 % 0 lf 991,6 hPa 0,0 l/m 0 min 0 min 42 W/m 27,2 km/h (4 Bft) 97,83 %
10.01.2016 14:48 9,1 C 8,9 C 6,7 C 70 % 0 lf 991,6 hPa 0,0 l/m 0 min 0 min 41 W/m 25,1 km/h (4 Bft) 93,62 %
10.01.2016 14:50 9,1 C 8,9 C 6,7 C 71 % 0 lf 991,6 hPa 0,0 l/m 0 min 0 min 42 W/m 25,1 km/h (4 Bft) 97,87 %
10.01.2016 14:52 8,9 C 8,9 C 6,7 C 71 % 0 lf 991,6 hPa 0,0 l/m 0 min 0 min 45 W/m 25,1 km/h (4 Bft) 97,87 %
10.01.2016 14:54 8,9 C 8,3 C 6,7 C 71 % 0 lf 991,6 hPa 0,0 l/m 0 min 0 min 47 W/m 29,3 km/h (5 Bft) 97,87 %
10.01.2016 14:56 8,8 C 8,3 C 6,7 C 71 % 0 lf 991,6 hPa 0,0 l/m 0 min 0 min 50 W/m 18,8 km/h (3 Bft) 95,74 %
10.01.2016 14:58 8,7 C 8,3 C 6,7 C 72 % 0 lf 991,7 hPa 0,0 l/m 0 min 0 min 53 W/m 29,3 km/h (5 Bft) 97,83 %
10.01.2016 15:00 8,6 C 8,3 C 6,7 C 72 % 0 lf 991,7 hPa 0,0 l/m 0 min 0 min 59 W/m 23,0 km/h (4 Bft) 97,87 %
10.01.2016 15:02 8,6 C 8,3 C 6,7 C 72 % 0 lf 991,6 hPa 0,0 l/m 0 min 0 min 62 W/m 27,2 km/h (4 Bft) 100,00 %
10.01.2016 15:04 8,5 C 8,3 C 6,7 C 73 % 0 lf 991,6 hPa 0,0 l/m 0 min 0 min 63 W/m 16,7 km/h (3 Bft) 97,87 %
10.01.2016 15:06 8,4 C 8,3 C 6,7 C 73 % 0 lf 991,6 hPa 0,0 l/m 0 min 0 min 63 W/m 18,8 km/h (3 Bft) 100,00 %
10.01.2016 15:08 8,4 C 8,3 C 6,7 C 73 % 0 lf 991,6 hPa 0,0 l/m 0 min 0 min 62 W/m 27,2 km/h (4 Bft) 100,00 %
10.01.2016 15:10 8,3 C 8,3 C 6,7 C 73 % 0 lf 991,6 hPa 0,0 l/m 0 min 0 min 60 W/m 29,3 km/h (5 Bft) 97,87 %
10.01.2016 15:12 8,3 C 8,3 C 6,7 C 73 % 0 lf 991,6 hPa 0,0 l/m 0 min 0 min 57 W/m 27,2 km/h (4 Bft) 100,00 %
10.01.2016 15:14 8,2 C 8,3 C 6,7 C 74 % 0 lf 991,6 hPa 0,0 l/m 0 min 0 min 53 W/m 31,4 km/h (5 Bft) 93,62 %
10.01.2016 15:16 8,2 C 8,3 C 6,7 C 74 % 0 lf 991,6 hPa 0,0 l/m 0 min 0 min 49 W/m 16,7 km/h (3 Bft) 95,74 %
10.01.2016 15:18 8,2 C 8,3 C 6,7 C 74 % 0 lf 991,6 hPa 0,0 l/m 0 min 0 min 46 W/m 10,5 km/h (2 Bft) 97,87 %
10.01.2016 15:20 8,2 C 8,3 C 6,7 C 74 % 0 lf 991,6 hPa 0,0 l/m 0 min 0 min 44 W/m 25,1 km/h (4 Bft) 97,83 %
10.01.2016 15:22 8,1 C 8,3 C 6,7 C 74 % 0 lf 991,7 hPa 0,0 l/m 0 min 0 min 40 W/m 23,0 km/h (4 Bft) 100,00 %
10.01.2016 15:24 8,1 C 8,3 C 6,7 C 74 % 0 lf 991,6 hPa 0,0 l/m 0 min 0 min 39 W/m 18,8 km/h (3 Bft) 100,00 %
10.01.2016 15:26 8,1 C 8,3 C 6,7 C 74 % 0 lf 991,7 hPa 0,0 l/m 0 min 0 min 37 W/m 16,7 km/h (3 Bft) 97,87 %
10.01.2016 15:28 8,1 C 8,3 C 6,7 C 75 % 0 lf 991,7 hPa 0,0 l/m 0 min 0 min 37 W/m 14,6 km/h (3 Bft) 97,87 %
10.01.2016 15:30 8,1 C 8,3 C 6,1 C 75 % 0 lf 991,7 hPa 0,0 l/m 0 min 0 min 36 W/m 16,7 km/h (3 Bft) 100,00 %
10.01.2016 15:32 8,1 C 8,3 C 6,7 C 75 % 0 lf 991,6 hPa 0,0 l/m 0 min 0 min 32 W/m 14,6 km/h (3 Bft) 93,48 %
10.01.2016 15:34 8,0 C 8,3 C 6,1 C 75 % 0 lf 991,6 hPa 0,0 l/m 0 min 0 min 28 W/m 20,9 km/h (4 Bft) 100,00 %
10.01.2016 15:36 8,0 C 8,3 C 6,1 C 75 % 0 lf 991,6 hPa 0,0 l/m 0 min 0 min 25 W/m 16,7 km/h (3 Bft) 95,74 %
10.01.2016 15:38 8,0 C 8,3 C 6,1 C 75 % 0 lf 991,6 hPa 0,0 l/m 0 min 0 min 22 W/m 14,6 km/h (3 Bft) 97,87 %
10.01.2016 15:40 7,9 C 8,3 C 6,7 C 75 % 0 lf 991,6 hPa 0,0 l/m 0 min 0 min 19 W/m 12,6 km/h (3 Bft) 97,87 %
10.01.2016 15:42 7,9 C 8,3 C 6,7 C 75 % 0 lf 991,6 hPa 0,0 l/m 0 min 0 min 19 W/m 25,1 km/h (4 Bft) 95,74 %
10.01.2016 15:44 7,9 C 8,3 C 6,7 C 75 % 0 lf 991,6 hPa 0,0 l/m 0 min 0 min 18 W/m 16,7 km/h (3 Bft) 93,48 %
10.01.2016 15:46 7,9 C 7,8 C 6,7 C 75 % 0 lf 991,7 hPa 0,0 l/m 0 min 0 min 18 W/m 12,6 km/h (3 Bft) 95,74 %
10.01.2016 15:48 7,9 C 7,8 C 6,7 C 75 % 0 lf 991,6 hPa 0,0 l/m 0 min 0 min 18 W/m 18,8 km/h (3 Bft) 91,49 %
10.01.2016 15:50 7,9 C 7,8 C 6,7 C 75 % 0 lf 991,6 hPa 0,0 l/m 0 min 0 min 18 W/m 16,7 km/h (3 Bft) 91,49 %
10.01.2016 15:52 7,9 C 7,8 C 6,1 C 75 % 0 lf 991,6 hPa 0,0 l/m 0 min 0 min 17 W/m 16,7 km/h (3 Bft) 95,74 %
10.01.2016 15:54 7,9 C 7,8 C 6,1 C 75 % 0 lf 991,6 hPa 0,0 l/m 0 min 0 min 14 W/m 12,6 km/h (3 Bft) 95,74 %
10.01.2016 15:56 7,9 C 7,8 C 6,1 C 76 % 0 lf 991,6 hPa 0,0 l/m 0 min 0 min 12 W/m 16,7 km/h (3 Bft) 93,48 %
10.01.2016 15:58 7,9 C 7,8 C 6,1 C 76 % 0 lf 991,6 hPa 0,0 l/m 0 min 0 min 11 W/m 12,6 km/h (3 Bft) 91,49 %
10.01.2016 16:00 7,8 C 7,8 C 6,1 C 76 % 0 lf 991,6 hPa 0,0 l/m 0 min 0 min 11 W/m 10,5 km/h (2 Bft) 93,62 %
10.01.2016 16:02 7,8 C 7,8 C 6,1 C 76 % 0 lf 991,5 hPa 0,0 l/m 0 min 0 min 11 W/m 12,6 km/h (3 Bft) 93,62 %
10.01.2016 16:04 7,8 C 7,8 C 6,1 C 76 % 0 lf 991,5 hPa 0,0 l/m 0 min 0 min 11 W/m 14,6 km/h (3 Bft) 89,36 %
10.01.2016 16:06 7,8 C 7,8 C 6,1 C 76 % 0 lf 991,6 hPa 0,0 l/m 0 min 0 min 9 W/m 20,9 km/h (4 Bft) 93,62 %
10.01.2016 16:08 7,7 C 7,2 C 6,1 C 76 % 0 lf 991,5 hPa 0,0 l/m 0 min 2 min 7 W/m 12,6 km/h (3 Bft) 91,30 %
10.01.2016 16:10 7,7 C 7,2 C 5,6 C 77 % 0 lf 991,5 hPa 0,0 l/m 0 min 2 min 7 W/m 12,6 km/h (3 Bft) 95,74 %
10.01.2016 16:12 7,7 C 6,7 C 5,6 C 77 % 0 lf 991,4 hPa 0,0 l/m 0 min 2 min 8 W/m 16,7 km/h (3 Bft) 91,49 %
10.01.2016 16:14 7,7 C 6,7 C 5,6 C 77 % 0 lf 991,3 hPa 0,0 l/m 0 min 2 min 9 W/m 14,6 km/h (3 Bft) 97,87 %
10.01.2016 16:16 7,7 C 6,7 C 5,0 C 78 % 0 lf 991,3 hPa 0,0 l/m 0 min 2 min 11 W/m 16,7 km/h (3 Bft) 97,87 %
10.01.2016 16:18 7,6 C 6,7 C 5,0 C 78 % 1 lf 991,3 hPa 0,0 l/m 0 min 2 min 11 W/m 18,8 km/h (3 Bft) 97,87 %
10.01.2016 16:20 7,6 C 6,7 C 5,0 C 78 % 0 lf 991,1 hPa 0,0 l/m 0 min 2 min 11 W/m 14,6 km/h (3 Bft) 97,83 %
10.01.2016 16:22 7,6 C 6,7 C 5,0 C 79 % 0 lf 991,1 hPa 0,0 l/m 0 min 2 min 10 W/m 14,6 km/h (3 Bft) 93,62 %
10.01.2016 16:24 7,5 C 6,7 C 4,4 C 79 % 0 lf 991,2 hPa 0,0 l/m 0 min 2 min 8 W/m 10,5 km/h (2 Bft) 97,87 %
10.01.2016 16:26 7,4 C 6,7 C 4,4 C 79 % 0 lf 991,2 hPa 0,0 l/m 0 min 0 min 7 W/m 14,6 km/h (3 Bft) 97,87 %
10.01.2016 16:28 7,4 C 6,7 C 5,0 C 80 % 0 lf 991,3 hPa 0,0 l/m 0 min 0 min 7 W/m 16,7 km/h (3 Bft) 91,49 %
10.01.2016 16:30 7,4 C 7,2 C 5,0 C 80 % 0 lf 991,3 hPa 0,0 l/m 0 min 2 min 7 W/m 18,8 km/h (3 Bft) 97,87 %
10.01.2016 16:32 7,4 C 7,2 C 5,0 C 80 % 0 lf 991,3 hPa 0,0 l/m 0 min 2 min 5 W/m 16,7 km/h (3 Bft) 100,00 %
10.01.2016 16:34 7,3 C 7,2 C 5,0 C 80 % 0 lf 991,2 hPa 0,0 l/m 0 min 0 min 5 W/m 16,7 km/h (3 Bft) 100,00 %
10.01.2016 16:36 7,3 C 7,2 C 5,0 C 81 % 0 lf 991,3 hPa 0,0 l/m 0 min 0 min 5 W/m 10,5 km/h (2 Bft) 100,00 %
10.01.2016 16:38 7,3 C 7,2 C 5,0 C 80 % 0 lf 991,2 hPa 0,0 l/m 0 min 2 min 5 W/m 18,8 km/h (3 Bft) 97,87 %
10.01.2016 16:40 7,3 C 7,2 C 5,0 C 80 % 0 lf 991,2 hPa 0,0 l/m 0 min 2 min 5 W/m 12,6 km/h (3 Bft) 95,74 %
10.01.2016 16:42 7,3 C 7,2 C 5,0 C 81 % 1 lf 991,2 hPa 0,0 l/m 0 min 2 min 5 W/m 14,6 km/h (3 Bft) 93,48 %
10.01.2016 16:44 7,2 C 7,2 C 5,6 C 81 % 0 lf 991,2 hPa 0,0 l/m 0 min 2 min 5 W/m 14,6 km/h (3 Bft) 97,87 %
10.01.2016 16:46 7,2 C 7,2 C 5,0 C 81 % 0 lf 991,1 hPa 0,0 l/m 0 min 2 min 2 W/m 12,6 km/h (3 Bft) 97,87 %
10.01.2016 16:48 7,2 C 7,2 C 5,0 C 81 % 0 lf 991,1 hPa 0,0 l/m 0 min 0 min 0 W/m 12,6 km/h (3 Bft) 97,87 %
10.01.2016 16:50 7,2 C 7,2 C 5,0 C 81 % 0 lf 991,1 hPa 0,0 l/m 0 min 0 min 0 W/m 14,6 km/h (3 Bft) 95,74 %
10.01.2016 16:52 7,2 C 7,2 C 5,0 C 81 % 0 lf 991,2 hPa 0,0 l/m 0 min 0 min 0 W/m 16,7 km/h (3 Bft) 95,74 %
10.01.2016 16:54 7,2 C 6,7 C 5,0 C 81 % 0 lf 991,2 hPa 0,0 l/m 0 min 2 min 0 W/m 16,7 km/h (3 Bft) 91,30 %
10.01.2016 16:56 7,2 C 6,1 C 5,0 C 81 % 1 lf 991,2 hPa 0,0 l/m 0 min 2 min 0 W/m 16,7 km/h (3 Bft) 97,87 %
10.01.2016 16:58 7,2 C 6,1 C 5,0 C 82 % 9 lf 991,2 hPa 0,0 l/m 0 min 2 min 0 W/m 10,5 km/h (2 Bft) 97,87 %
10.01.2016 17:00 7,2 C 6,1 C 4,4 C 82 % 12 lf 991,1 hPa 0,0 l/m 0 min 2 min 0 W/m 12,6 km/h (3 Bft) 95,74 %
10.01.2016 17:02 7,2 C 6,1 C 4,4 C 82 % 13 lf 991,1 hPa 0,0 l/m 0 min 2 min 0 W/m 12,6 km/h (3 Bft) 95,74 %
10.01.2016 17:04 7,2 C 5,6 C 4,4 C 82 % 14 lf 991,1 hPa 0,2 l/m 0 min 2 min 0 W/m 10,5 km/h (2 Bft) 97,87 %
10.01.2016 17:06 7,2 C 5,6 C 4,4 C 83 % 14 lf 991,1 hPa 0,0 l/m 0 min 2 min 0 W/m 16,7 km/h (3 Bft) 97,83 %
10.01.2016 17:08 7,2 C 5,6 C 4,4 C 83 % 14 lf 991,2 hPa 0,0 l/m 0 min 2 min 0 W/m 12,6 km/h (3 Bft) 95,74 %
10.01.2016 17:10 7,2 C 5,6 C 4,4 C 83 % 14 lf 991,2 hPa 0,0 l/m 0 min 2 min 0 W/m 14,6 km/h (3 Bft) 93,62 %
10.01.2016 17:12 7,2 C 5,6 C 4,4 C 83 % 14 lf 991,1 hPa 0,0 l/m 0 min 2 min 0 W/m 12,6 km/h (3 Bft) 97,87 %
10.01.2016 17:14 7,2 C 5,6 C 4,4 C 84 % 13 lf 991,2 hPa 0,0 l/m 0 min 2 min 0 W/m 10,5 km/h (2 Bft) 95,74 %
10.01.2016 17:16 7,1 C 5,6 C 4,4 C 84 % 13 lf 991,2 hPa 0,0 l/m 0 min 2 min 0 W/m 18,8 km/h (3 Bft) 97,87 %
10.01.2016 17:18 7,1 C 5,6 C 4,4 C 84 % 14 lf 991,2 hPa 0,0 l/m 0 min 2 min 0 W/m 10,5 km/h (2 Bft) 97,83 %
10.01.2016 17:20 7,1 C 5,6 C 4,4 C 84 % 14 lf 991,4 hPa 0,0 l/m 0 min 2 min 0 W/m 25,1 km/h (4 Bft) 97,87 %
10.01.2016 17:22 7,1 C 5,6 C 4,4 C 85 % 14 lf 991,2 hPa 0,2 l/m 0 min 2 min 0 W/m 29,3 km/h (5 Bft) 93,62 %
10.01.2016 17:24 7,1 C 5,6 C 4,4 C 85 % 14 lf 991,3 hPa 0,0 l/m 0 min 2 min 0 W/m 18,8 km/h (3 Bft) 91,49 %
10.01.2016 17:26 7,1 C 5,6 C 4,4 C 85 % 14 lf 991,3 hPa 0,0 l/m 0 min 2 min 0 W/m 18,8 km/h (3 Bft) 97,87 %
10.01.2016 17:28 7,0 C 5,6 C 4,4 C 86 % 15 lf 991,3 hPa 0,2 l/m 0 min 2 min 0 W/m 16,7 km/h (3 Bft) 95,74 %
10.01.2016 17:30 7,0 C 5,6 C 4,4 C 86 % 15 lf 991,2 hPa 0,0 l/m 0 min 2 min 0 W/m 14,6 km/h (3 Bft) 95,65 %
10.01.2016 17:32 7,0 C 5,6 C 4,4 C 86 % 15 lf 991,3 hPa 0,0 l/m 0 min 2 min 0 W/m 6,3 km/h (2 Bft) 97,87 %
10.01.2016 17:34 6,9 C 5,6 C 4,4 C 86 % 15 lf 991,2 hPa 0,0 l/m 0 min 2 min 0 W/m 16,7 km/h (3 Bft) 97,87 %
10.01.2016 17:36 6,9 C 5,6 C 4,4 C 87 % 15 lf 991,2 hPa 0,0 l/m 0 min 2 min 0 W/m 16,7 km/h (3 Bft) 97,87 %
10.01.2016 17:38 6,9 C 5,6 C 4,4 C 87 % 15 lf 991,2 hPa 0,0 l/m 0 min 2 min 0 W/m 12,6 km/h (3 Bft) 95,74 %
10.01.2016 17:40 6,9 C 5,6 C 4,4 C 87 % 15 lf 991,1 hPa 0,0 l/m 0 min 0 min 0 W/m 8,4 km/h (2 Bft) 97,87 %
10.01.2016 17:42 6,8 C 5,6 C 4,4 C 87 % 15 lf 991,1 hPa 0,0 l/m 0 min 0 min 0 W/m 8,4 km/h (2 Bft) 95,65 %
10.01.2016 17:44 6,8 C 5,6 C 4,4 C 88 % 15 lf 991,2 hPa 0,0 l/m 0 min 0 min 0 W/m 8,4 km/h (2 Bft) 95,74 %
10.01.2016 17:46 6,8 C 5,6 C 4,4 C 88 % 15 lf 991,1 hPa 0,0 l/m 0 min 0 min 0 W/m 8,4 km/h (2 Bft) 95,74 %
10.01.2016 17:48 6,8 C 5,6 C 4,4 C 88 % 15 lf 991,0 hPa 0,0 l/m 0 min 0 min 0 W/m 8,4 km/h (2 Bft) 97,87 %
10.01.2016 17:50 6,7 C 5,6 C 4,4 C 88 % 15 lf 991,1 hPa 0,0 l/m 0 min 2 min 0 W/m 8,4 km/h (2 Bft) 93,62 %
10.01.2016 17:52 6,7 C 5,6 C 4,4 C 88 % 15 lf 991,2 hPa 0,0 l/m 0 min 0 min 0 W/m 6,3 km/h (2 Bft) 97,83 %
10.01.2016 17:54 6,7 C 5,6 C 4,4 C 88 % 15 lf 991,2 hPa 0,0 l/m 0 min 0 min 0 W/m 6,3 km/h (2 Bft) 95,74 %
10.01.2016 17:56 6,7 C 5,6 C 4,4 C 88 % 15 lf 991,2 hPa 0,0 l/m 0 min 0 min 0 W/m 4,2 km/h (1 Bft) 97,87 %
10.01.2016 17:58 6,7 C 5,6 C 4,4 C 89 % 14 lf 991,1 hPa 0,0 l/m 0 min 0 min 0 W/m 6,3 km/h (2 Bft) 97,87 %
10.01.2016 18:00 6,7 C 5,6 C 4,4 C 89 % 14 lf 991,1 hPa 0,0 l/m 0 min 0 min 0 W/m 8,4 km/h (2 Bft) 95,74 %
10.01.2016 18:02 6,6 C 5,6 C 4,4 C 89 % 14 lf 991,1 hPa 0,0 l/m 0 min 0 min 0 W/m 4,2 km/h (1 Bft) 95,74 %
10.01.2016 18:04 6,6 C 5,6 C 4,4 C 89 % 14 lf 991,2 hPa 0,0 l/m 0 min 0 min 0 W/m 6,3 km/h (2 Bft) 97,83 %
10.01.2016 18:06 6,6 C 5,6 C 4,4 C 89 % 14 lf 991,1 hPa 0,0 l/m 0 min 0 min 0 W/m 6,3 km/h (2 Bft) 95,74 %
10.01.2016 18:08 6,6 C 5,6 C 4,4 C 89 % 14 lf 991,1 hPa 0,0 l/m 0 min 0 min 0 W/m 6,3 km/h (2 Bft) 95,74 %
10.01.2016 18:10 6,6 C 5,6 C 4,4 C 89 % 14 lf 991,0 hPa 0,0 l/m 0 min 0 min 0 W/m 8,4 km/h (2 Bft) 97,87 %
10.01.2016 18:12 6,5 C 5,6 C 4,4 C 89 % 13 lf 990,9 hPa 0,0 l/m 0 min 0 min 0 W/m 6,3 km/h (2 Bft) 97,87 %
10.01.2016 18:14 6,5 C 5,6 C 4,4 C 90 % 13 lf 991,0 hPa 0,0 l/m 0 min 0 min 0 W/m 6,3 km/h (2 Bft) 93,62 %
10.01.2016 18:16 6,5 C 5,6 C 4,4 C 90 % 13 lf 991,0 hPa 0,0 l/m 0 min 0 min 0 W/m 10,5 km/h (2 Bft) 97,83 %
10.01.2016 18:18 6,4 C 5,6 C 4,4 C 90 % 13 lf 991,1 hPa 0,0 l/m 0 min 0 min 0 W/m 14,6 km/h (3 Bft) 97,87 %
10.01.2016 18:20 6,4 C 5,6 C 4,4 C 90 % 12 lf 991,1 hPa 0,0 l/m 0 min 0 min 0 W/m 6,3 km/h (2 Bft) 93,62 %
10.01.2016 18:22 6,4 C 5,6 C 4,4 C 90 % 12 lf 991,1 hPa 0,0 l/m 0 min 0 min 0 W/m 8,4 km/h (2 Bft) 93,62 %
10.01.2016 18:24 6,4 C 5,6 C 4,4 C 90 % 12 lf 991,1 hPa 0,0 l/m 0 min 0 min 0 W/m 6,3 km/h (2 Bft) 95,74 %
10.01.2016 18:26 6,4 C 5,6 C 4,4 C 90 % 11 lf 991,1 hPa 0,0 l/m 0 min 0 min 0 W/m 4,2 km/h (1 Bft) 91,49 %
10.01.2016 18:28 6,4 C 5,6 C 4,4 C 90 % 11 lf 991,0 hPa 0,0 l/m 0 min 0 min 0 W/m 4,2 km/h (1 Bft) 95,65 %
10.01.2016 18:30 6,4 C 5,6 C 4,4 C 90 % 10 lf 991,0 hPa 0,0 l/m 0 min 0 min 0 W/m 8,4 km/h (2 Bft) 93,62 %
10.01.2016 18:32 6,4 C 5,6 C 4,4 C 90 % 9 lf 991,0 hPa 0,0 l/m 0 min 0 min 0 W/m 4,2 km/h (1 Bft) 95,74 %
10.01.2016 18:34 6,4 C 5,6 C 4,4 C 91 % 9 lf 991,0 hPa 0,0 l/m 0 min 0 min 0 W/m 4,2 km/h (1 Bft) 95,74 %
10.01.2016 18:36 6,4 C 5,6 C 4,4 C 91 % 8 lf 991,0 hPa 0,0 l/m 0 min 0 min 0 W/m 6,3 km/h (2 Bft) 91,49 %
10.01.2016 18:38 6,3 C 5,6 C 4,4 C 91 % 8 lf 991,1 hPa 0,0 l/m 0 min 0 min 0 W/m 6,3 km/h (2 Bft) 93,62 %
10.01.2016 18:40 6,3 C 5,6 C 4,4 C 91 % 7 lf 991,1 hPa 0,0 l/m 0 min 0 min 0 W/m 6,3 km/h (2 Bft) 95,65 %
10.01.2016 18:42 6,3 C 5,6 C 4,4 C 91 % 13 lf 991,2 hPa 0,0 l/m 0 min 2 min 0 W/m 8,4 km/h (2 Bft) 89,36 %
10.01.2016 18:44 6,3 C 5,6 C 4,4 C 91 % 15 lf 991,2 hPa 0,0 l/m 0 min 2 min 0 W/m 10,5 km/h (2 Bft) 93,62 %
10.01.2016 18:46 6,3 C 5,6 C 4,4 C 91 % 15 lf 991,2 hPa 0,0 l/m 0 min 2 min 0 W/m 10,5 km/h (2 Bft) 95,74 %
10.01.2016 18:48 6,3 C 5,6 C 4,4 C 91 % 15 lf 991,3 hPa 0,2 l/m 0 min 2 min 0 W/m 14,6 km/h (3 Bft) 95,74 %
10.01.2016 18:50 6,3 C 5,6 C 4,4 C 91 % 15 lf 991,4 hPa 0,0 l/m 0 min 2 min 0 W/m 12,6 km/h (3 Bft) 95,74 %
10.01.2016 18:52 6,3 C 5,6 C 4,4 C 91 % 15 lf 991,2 hPa 0,0 l/m 0 min 2 min 0 W/m 6,3 km/h (2 Bft) 95,65 %
10.01.2016 18:54 6,2 C 5,6 C 4,4 C 91 % 15 lf 991,2 hPa 0,0 l/m 0 min 2 min 0 W/m 6,3 km/h (2 Bft) 93,62 %
10.01.2016 18:56 6,2 C 5,6 C 4,4 C 91 % 15 lf 991,3 hPa 0,0 l/m 0 min 2 min 0 W/m 4,2 km/h (1 Bft) 93,62 %
10.01.2016 18:58 6,2 C 5,6 C 4,4 C 91 % 15 lf 991,3 hPa 0,0 l/m 0 min 2 min 0 W/m 4,2 km/h (1 Bft) 95,74 %
10.01.2016 19:00 6,2 C 5,6 C 4,4 C 91 % 15 lf 991,3 hPa 0,2 l/m 0 min 2 min 0 W/m 2,1 km/h (1 Bft) 93,62 %
10.01.2016 19:02 6,2 C 5,6 C 4,4 C 91 % 15 lf 991,2 hPa 0,0 l/m 0 min 2 min 0 W/m 4,2 km/h (1 Bft) 97,83 %
10.01.2016 19:04 6,2 C 5,6 C 4,4 C 91 % 15 lf 991,3 hPa 0,0 l/m 0 min 2 min 0 W/m 6,3 km/h (2 Bft) 95,74 %
10.01.2016 19:06 6,2 C 5,6 C 4,4 C 92 % 15 lf 991,4 hPa 0,0 l/m 0 min 2 min 0 W/m 6,3 km/h (2 Bft) 97,87 %
10.01.2016 19:08 6,2 C 5,6 C 4,4 C 92 % 15 lf 991,4 hPa 0,0 l/m 0 min 2 min 0 W/m 8,4 km/h (2 Bft) 97,87 %
10.01.2016 19:10 6,2 C 5,6 C 4,4 C 92 % 15 lf 991,4 hPa 0,0 l/m 0 min 2 min 0 W/m 12,6 km/h (3 Bft) 95,74 %
10.01.2016 19:12 6,1 C 5,6 C 4,4 C 92 % 15 lf 991,3 hPa 0,0 l/m 0 min 2 min 0 W/m 14,6 km/h (3 Bft) 97,87 %
10.01.2016 19:14 6,1 C 5,6 C 4,4 C 92 % 15 lf 991,2 hPa 0,0 l/m 0 min 2 min 0 W/m 12,6 km/h (3 Bft) 91,30 %
10.01.2016 19:16 6,1 C 5,6 C 4,4 C 92 % 15 lf 991,2 hPa 0,0 l/m 0 min 2 min 0 W/m 16,7 km/h (3 Bft) 95,74 %
10.01.2016 19:18 6,1 C 5,6 C 4,4 C 92 % 15 lf 991,2 hPa 0,0 l/m 0 min 0 min 0 W/m 12,6 km/h (3 Bft) 93,62 %
10.01.2016 19:20 6,1 C 5,6 C 4,4 C 92 % 15 lf 991,2 hPa 0,0 l/m 0 min 0 min 0 W/m 12,6 km/h (3 Bft) 97,87 %
10.01.2016 19:22 6,1 C 5,6 C 4,4 C 92 % 15 lf 991,1 hPa 0,0 l/m 0 min 0 min 0 W/m 8,4 km/h (2 Bft) 95,74 %
10.01.2016 19:24 6,1 C 5,6 C 4,4 C 92 % 15 lf 991,1 hPa 0,0 l/m 0 min 0 min 0 W/m 8,4 km/h (2 Bft) 100,00 %
10.01.2016 19:26 6,1 C 5,6 C 4,4 C 92 % 15 lf 991,2 hPa 0,0 l/m 0 min 0 min 0 W/m 8,4 km/h (2 Bft) 97,83 %
10.01.2016 19:28 6,1 C 5,6 C 4,4 C 93 % 15 lf 991,2 hPa 0,0 l/m 0 min 0 min 0 W/m 6,3 km/h (2 Bft) 95,74 %
10.01.2016 19:30 6,1 C 5,6 C 4,4 C 93 % 15 lf 991,3 hPa 0,0 l/m 0 min 0 min 0 W/m 12,6 km/h (3 Bft) 97,87 %
10.01.2016 19:32 6,1 C 5,6 C 4,4 C 93 % 15 lf 991,3 hPa 0,0 l/m 0 min 0 min 0 W/m 8,4 km/h (2 Bft) 95,74 %
10.01.2016 19:34 6,1 C 5,6 C 4,4 C 93 % 15 lf 991,2 hPa 0,0 l/m 0 min 0 min 0 W/m 6,3 km/h (2 Bft) 95,74 %
10.01.2016 19:36 6,1 C 5,6 C 4,4 C 93 % 15 lf 991,2 hPa 0,0 l/m 0 min 0 min 0 W/m 8,4 km/h (2 Bft) 91,49 %
10.01.2016 19:38 6,1 C 5,6 C 4,4 C 93 % 15 lf 991,2 hPa 0,0 l/m 0 min 0 min 0 W/m 14,6 km/h (3 Bft) 97,83 %
10.01.2016 19:40 6,1 C 5,6 C 4,4 C 93 % 15 lf 991,2 hPa 0,0 l/m 0 min 0 min 0 W/m 12,6 km/h (3 Bft) 97,87 %
10.01.2016 19:42 6,1 C 5,6 C 4,4 C 93 % 15 lf 991,2 hPa 0,0 l/m 0 min 0 min 0 W/m 10,5 km/h (2 Bft) 95,74 %
10.01.2016 19:44 6,1 C 5,6 C 4,4 C 93 % 15 lf 991,3 hPa 0,0 l/m 0 min 0 min 0 W/m 12,6 km/h (3 Bft) 93,62 %
10.01.2016 19:46 6,1 C 5,6 C 4,4 C 93 % 15 lf 991,4 hPa 0,0 l/m 0 min 0 min 0 W/m 10,5 km/h (2 Bft) 93,62 %
10.01.2016 19:48 6,1 C 5,6 C 4,4 C 93 % 15 lf 991,4 hPa 0,0 l/m 0 min 0 min 0 W/m 10,5 km/h (2 Bft) 95,74 %
10.01.2016 19:50 6,1 C 5,6 C 4,4 C 93 % 15 lf 991,4 hPa 0,0 l/m 0 min 0 min 0 W/m 12,6 km/h (3 Bft) 95,65 %
10.01.2016 19:52 6,1 C 5,6 C 4,4 C 93 % 15 lf 991,3 hPa 0,0 l/m 0 min 0 min 0 W/m 10,5 km/h (2 Bft) 97,87 %
10.01.2016 19:54 6,1 C 5,6 C 4,4 C 93 % 15 lf 991,4 hPa 0,0 l/m 0 min 0 min 0 W/m 8,4 km/h (2 Bft) 97,87 %
10.01.2016 19:56 6,1 C 5,6 C 4,4 C 93 % 15 lf 991,4 hPa 0,0 l/m 0 min 0 min 0 W/m 8,4 km/h (2 Bft) 97,87 %
10.01.2016 19:58 6,1 C 5,6 C 4,4 C 93 % 15 lf 991,5 hPa 0,0 l/m 0 min 0 min 0 W/m 10,5 km/h (2 Bft) 95,74 %
10.01.2016 20:00 6,1 C 5,6 C 4,4 C 93 % 15 lf 991,5 hPa 0,0 l/m 0 min 0 min 0 W/m 8,4 km/h (2 Bft) 95,65 %
10.01.2016 20:02 6,1 C 5,6 C 4,4 C 94 % 15 lf 991,5 hPa 0,0 l/m 0 min 0 min 0 W/m 6,3 km/h (2 Bft) 95,74 %
10.01.2016 20:04 6,1 C 5,6 C 4,4 C 94 % 15 lf 991,5 hPa 0,0 l/m 0 min 0 min 0 W/m 8,4 km/h (2 Bft) 91,49 %
10.01.2016 20:06 6,1 C 5,6 C 4,4 C 94 % 15 lf 991,5 hPa 0,0 l/m 0 min 0 min 0 W/m 10,5 km/h (2 Bft) 97,87 %
10.01.2016 20:08 6,0 C 5,6 C 4,4 C 94 % 15 lf 991,5 hPa 0,0 l/m 0 min 0 min 0 W/m 8,4 km/h (2 Bft) 97,87 %
10.01.2016 20:10 6,0 C 5,6 C 4,4 C 94 % 15 lf 991,5 hPa 0,0 l/m 0 min 0 min 0 W/m 10,5 km/h (2 Bft) 97,87 %
10.01.2016 20:12 6,0 C 5,6 C 4,4 C 94 % 15 lf 991,5 hPa 0,0 l/m 0 min 0 min 0 W/m 10,5 km/h (2 Bft) 95,65 %
10.01.2016 20:14 6,0 C 5,6 C 4,4 C 94 % 15 lf 991,5 hPa 0,0 l/m 0 min 0 min 0 W/m 8,4 km/h (2 Bft) 95,74 %
10.01.2016 20:16 6,0 C 5,6 C 4,4 C 94 % 15 lf 991,5 hPa 0,0 l/m 0 min 0 min 0 W/m 10,5 km/h (2 Bft) 97,87 %
10.01.2016 20:18 6,0 C 5,6 C 4,4 C 94 % 15 lf 991,5 hPa 0,0 l/m 0 min 0 min 0 W/m 14,6 km/h (3 Bft) 95,74 %
10.01.2016 20:20 6,0 C 5,6 C 4,4 C 94 % 15 lf 991,5 hPa 0,0 l/m 0 min 0 min 0 W/m 8,4 km/h (2 Bft) 95,74 %
10.01.2016 20:22 6,0 C 5,6 C 4,4 C 94 % 15 lf 991,5 hPa 0,0 l/m 0 min 2 min 0 W/m 10,5 km/h (2 Bft) 93,62 %
10.01.2016 20:24 6,0 C 5,6 C 4,4 C 94 % 15 lf 991,6 hPa 0,0 l/m 0 min 0 min 0 W/m 8,4 km/h (2 Bft) 97,83 %
10.01.2016 20:26 6,0 C 5,6 C 4,4 C 94 % 15 lf 991,6 hPa 0,0 l/m 0 min 0 min 0 W/m 8,4 km/h (2 Bft) 97,87 %
10.01.2016 20:28 6,0 C 5,6 C 4,4 C 94 % 15 lf 991,6 hPa 0,0 l/m 0 min 0 min 0 W/m 14,6 km/h (3 Bft) 97,87 %
10.01.2016 20:30 6,0 C 5,6 C 4,4 C 94 % 15 lf 991,6 hPa 0,0 l/m 0 min 2 min 0 W/m 10,5 km/h (2 Bft) 95,74 %
10.01.2016 20:32 6,0 C 5,6 C 3,9 C 94 % 15 lf 991,6 hPa 0,0 l/m 0 min 0 min 0 W/m 12,6 km/h (3 Bft) 95,74 %
10.01.2016 20:34 6,0 C 5,6 C 3,9 C 94 % 15 lf 991,6 hPa 0,0 l/m 0 min 0 min 0 W/m 16,7 km/h (3 Bft) 93,62 %
10.01.2016 20:36 5,9 C 5,6 C 3,9 C 94 % 15 lf 991,6 hPa 0,0 l/m 0 min 0 min 0 W/m 14,6 km/h (3 Bft) 93,48 %
10.01.2016 20:38 5,9 C 5,6 C 3,9 C 94 % 15 lf 991,7 hPa 0,0 l/m 0 min 0 min 0 W/m 14,6 km/h (3 Bft) 97,87 %
10.01.2016 20:40 5,9 C 5,6 C 3,9 C 94 % 15 lf 991,6 hPa 0,0 l/m 0 min 0 min 0 W/m 14,6 km/h (3 Bft) 100,00 %
10.01.2016 20:42 5,9 C 5,6 C 3,9 C 94 % 15 lf 991,7 hPa 0,0 l/m 0 min 0 min 0 W/m 10,5 km/h (2 Bft) 97,87 %
10.01.2016 20:44 5,9 C 5,6 C 3,9 C 94 % 15 lf 991,7 hPa 0,0 l/m 0 min 0 min 0 W/m 10,5 km/h (2 Bft) 97,87 %
10.01.2016 20:46 5,9 C 5,6 C 3,9 C 94 % 15 lf 991,7 hPa 0,0 l/m 0 min 0 min 0 W/m 12,6 km/h (3 Bft) 93,62 %
10.01.2016 20:48 5,9 C 5,6 C 3,9 C 94 % 15 lf 991,6 hPa 0,0 l/m 0 min 0 min 0 W/m 10,5 km/h (2 Bft) 97,83 %
10.01.2016 20:50 5,9 C 5,6 C 3,9 C 94 % 15 lf 991,7 hPa 0,0 l/m 0 min 0 min 0 W/m 14,6 km/h (3 Bft) 97,87 %
10.01.2016 20:52 5,9 C 5,6 C 3,9 C 94 % 15 lf 991,8 hPa 0,0 l/m 0 min 0 min 0 W/m 12,6 km/h (3 Bft) 97,87 %
10.01.2016 20:54 5,8 C 5,6 C 3,9 C 94 % 15 lf 991,8 hPa 0,0 l/m 0 min 0 min 0 W/m 14,6 km/h (3 Bft) 95,74 %
10.01.2016 20:56 5,8 C 5,6 C 3,9 C 94 % 15 lf 991,8 hPa 0,0 l/m 0 min 0 min 0 W/m 14,6 km/h (3 Bft) 95,74 %
10.01.2016 20:58 5,8 C 5,6 C 3,9 C 94 % 15 lf 991,8 hPa 0,0 l/m 0 min 0 min 0 W/m 14,6 km/h (3 Bft) 91,49 %
10.01.2016 21:00 5,9 C 5,6 C 3,9 C 94 % 15 lf 991,8 hPa 0,0 l/m 0 min 0 min 0 W/m 14,6 km/h (3 Bft) 97,83 %
10.01.2016 21:02 5,8 C 5,6 C 3,9 C 94 % 15 lf 991,8 hPa 0,0 l/m 0 min 0 min 0 W/m 14,6 km/h (3 Bft) 97,87 %
10.01.2016 21:04 5,8 C 5,6 C 3,9 C 94 % 15 lf 991,8 hPa 0,0 l/m 0 min 0 min 0 W/m 12,6 km/h (3 Bft) 95,74 %
10.01.2016 21:06 5,8 C 5,6 C 3,9 C 94 % 15 lf 991,8 hPa 0,0 l/m 0 min 0 min 0 W/m 14,6 km/h (3 Bft) 95,74 %
10.01.2016 21:08 5,8 C 5,6 C 3,9 C 94 % 15 lf 991,8 hPa 0,0 l/m 0 min 0 min 0 W/m 14,6 km/h (3 Bft) 95,74 %
10.01.2016 21:10 5,8 C 5,6 C 3,9 C 94 % 15 lf 991,8 hPa 0,0 l/m 0 min 0 min 0 W/m 16,7 km/h (3 Bft) 95,74 %
10.01.2016 21:12 5,8 C 5,6 C 3,9 C 94 % 15 lf 991,8 hPa 0,0 l/m 0 min 0 min 0 W/m 10,5 km/h (2 Bft) 89,13 %
10.01.2016 21:14 5,8 C 5,6 C 3,9 C 94 % 15 lf 991,8 hPa 0,0 l/m 0 min 0 min 0 W/m 14,6 km/h (3 Bft) 97,87 %
10.01.2016 21:16 5,8 C 5,6 C 4,4 C 94 % 15 lf 991,8 hPa 0,0 l/m 0 min 0 min 0 W/m 14,6 km/h (3 Bft) 95,74 %
10.01.2016 21:18 5,8 C 5,6 C 4,4 C 94 % 15 lf 991,8 hPa 0,0 l/m 0 min 0 min 0 W/m 12,6 km/h (3 Bft) 95,74 %
10.01.2016 21:20 5,8 C 5,6 C 4,4 C 94 % 15 lf 991,8 hPa 0,0 l/m 0 min 0 min 0 W/m 12,6 km/h (3 Bft) 95,74 %
10.01.2016 21:22 5,8 C 5,6 C 4,4 C 94 % 15 lf 991,8 hPa 0,0 l/m 0 min 0 min 0 W/m 12,6 km/h (3 Bft) 93,48 %
10.01.2016 21:24 5,8 C 5,6 C 4,4 C 94 % 15 lf 991,8 hPa 0,0 l/m 0 min 0 min 0 W/m 14,6 km/h (3 Bft) 95,74 %
10.01.2016 21:26 5,8 C 5,6 C 4,4 C 94 % 15 lf 991,8 hPa 0,0 l/m 0 min 0 min 0 W/m 14,6 km/h (3 Bft) 97,87 %
10.01.2016 21:28 5,8 C 5,6 C 4,4 C 94 % 14 lf 991,8 hPa 0,0 l/m 0 min 0 min 0 W/m 12,6 km/h (3 Bft) 95,74 %
10.01.2016 21:30 5,8 C 5,6 C 4,4 C 94 % 14 lf 991,8 hPa 0,0 l/m 0 min 0 min 0 W/m 18,8 km/h (3 Bft) 91,49 %
10.01.2016 21:32 5,8 C 5,6 C 4,4 C 94 % 14 lf 991,8 hPa 0,0 l/m 0 min 0 min 0 W/m 12,6 km/h (3 Bft) 95,74 %
10.01.2016 21:34 5,9 C 5,6 C 4,4 C 94 % 13 lf 991,8 hPa 0,0 l/m 0 min 0 min 0 W/m 20,9 km/h (4 Bft) 97,87 %
10.01.2016 21:36 5,9 C 5,6 C 4,4 C 94 % 12 lf 991,8 hPa 0,0 l/m 0 min 0 min 0 W/m 12,6 km/h (3 Bft) 100,00 %
10.01.2016 21:38 5,9 C 5,6 C 4,4 C 94 % 12 lf 991,8 hPa 0,0 l/m 0 min 0 min 0 W/m 12,6 km/h (3 Bft) 100,00 %
10.01.2016 21:40 5,9 C 5,6 C 4,4 C 94 % 11 lf 991,8 hPa 0,0 l/m 0 min 0 min 0 W/m 14,6 km/h (3 Bft) 97,87 %
10.01.2016 21:42 5,9 C 5,6 C 4,4 C 94 % 11 lf 991,8 hPa 0,0 l/m 0 min 0 min 0 W/m 10,5 km/h (2 Bft) 100,00 %
10.01.2016 21:44 5,9 C 5,6 C 4,4 C 94 % 10 lf 991,7 hPa 0,0 l/m 0 min 0 min 0 W/m 18,8 km/h (3 Bft) 97,87 %
10.01.2016 21:46 5,9 C 5,6 C 4,4 C 94 % 9 lf 991,9 hPa 0,0 l/m 0 min 0 min 0 W/m 12,6 km/h (3 Bft) 100,00 %
10.01.2016 21:48 5,9 C 5,6 C 4,4 C 94 % 8 lf 991,8 hPa 0,0 l/m 0 min 0 min 0 W/m 14,6 km/h (3 Bft) 100,00 %
10.01.2016 21:50 5,9 C 5,6 C 3,9 C 94 % 7 lf 991,8 hPa 0,0 l/m 0 min 0 min 0 W/m 10,5 km/h (2 Bft) 100,00 %
10.01.2016 21:52 5,9 C 5,6 C 3,9 C 94 % 5 lf 991,8 hPa 0,0 l/m 0 min 0 min 0 W/m 10,5 km/h (2 Bft) 100,00 %
10.01.2016 21:54 5,9 C 5,6 C 3,9 C 94 % 4 lf 991,8 hPa 0,0 l/m 0 min 0 min 0 W/m 12,6 km/h (3 Bft) 100,00 %
10.01.2016 21:56 5,9 C 5,6 C 3,9 C 94 % 4 lf 991,8 hPa 0,0 l/m 0 min 0 min 0 W/m 16,7 km/h (3 Bft) 97,87 %
10.01.2016 21:58 5,9 C 5,6 C 3,9 C 94 % 3 lf 991,8 hPa 0,0 l/m 0 min 0 min 0 W/m 16,7 km/h (3 Bft) 97,83 %
10.01.2016 22:00 5,9 C 5,6 C 3,9 C 94 % 3 lf 991,8 hPa 0,0 l/m 0 min 0 min 0 W/m 14,6 km/h (3 Bft) 100,00 %
10.01.2016 22:02 5,9 C 5,6 C 3,9 C 94 % 2 lf 991,9 hPa 0,0 l/m 0 min 0 min 0 W/m 14,6 km/h (3 Bft) 100,00 %
10.01.2016 22:04 5,9 C 5,6 C 3,9 C 94 % 2 lf 991,9 hPa 0,0 l/m 0 min 0 min 0 W/m 14,6 km/h (3 Bft) 100,00 %
10.01.2016 22:06 5,9 C 5,6 C 3,9 C 94 % 2 lf 991,9 hPa 0,0 l/m 0 min 0 min 0 W/m 14,6 km/h (3 Bft) 97,87 %
10.01.2016 22:08 5,9 C 5,6 C 3,9 C 94 % 1 lf 991,9 hPa 0,0 l/m 0 min 0 min 0 W/m 20,9 km/h (4 Bft) 97,87 %
10.01.2016 22:10 5,9 C 5,0 C 3,9 C 94 % 1 lf 991,9 hPa 0,0 l/m 0 min 0 min 0 W/m 12,6 km/h (3 Bft) 97,83 %
10.01.2016 22:12 5,8 C 5,0 C 3,9 C 94 % 1 lf 991,8 hPa 0,0 l/m 0 min 0 min 0 W/m 16,7 km/h (3 Bft) 97,87 %
10.01.2016 22:14 5,8 C 5,0 C 3,9 C 94 % 1 lf 991,8 hPa 0,0 l/m 0 min 0 min 0 W/m 10,5 km/h (2 Bft) 100,00 %
10.01.2016 22:16 5,8 C 5,0 C 3,3 C 94 % 0 lf 991,8 hPa 0,0 l/m 0 min 0 min 0 W/m 14,6 km/h (3 Bft) 97,87 %
10.01.2016 22:18 5,8 C 5,0 C 3,3 C 94 % 0 lf 991,9 hPa 0,0 l/m 0 min 0 min 0 W/m 10,5 km/h (2 Bft) 93,62 %
10.01.2016 22:20 5,8 C 5,0 C 3,3 C 94 % 0 lf 991,9 hPa 0,0 l/m 0 min 0 min 0 W/m 8,4 km/h (2 Bft) 97,87 %
10.01.2016 22:22 5,7 C 5,0 C 3,3 C 93 % 0 lf 991,9 hPa 0,0 l/m 0 min 0 min 0 W/m 10,5 km/h (2 Bft) 100,00 %
10.01.2016 22:24 5,7 C 5,0 C 3,3 C 93 % 0 lf 991,9 hPa 0,0 l/m 0 min 0 min 0 W/m 12,6 km/h (3 Bft) 95,74 %
10.01.2016 22:26 5,7 C 5,0 C 3,3 C 93 % 0 lf 991,9 hPa 0,0 l/m 0 min 0 min 0 W/m 14,6 km/h (3 Bft) 95,74 %
10.01.2016 22:28 5,7 C 5,0 C 3,3 C 93 % 0 lf 991,9 hPa 0,0 l/m 0 min 0 min 0 W/m 10,5 km/h (2 Bft) 97,87 %
10.01.2016 22:30 5,7 C 5,0 C 3,3 C 93 % 0 lf 991,8 hPa 0,0 l/m 0 min 0 min 0 W/m 14,6 km/h (3 Bft) 95,74 %
10.01.2016 22:32 5,7 C 5,0 C 3,3 C 93 % 0 lf 991,8 hPa 0,0 l/m 0 min 0 min 0 W/m 12,6 km/h (3 Bft) 97,87 %
10.01.2016 22:34 5,6 C 5,0 C 3,3 C 93 % 0 lf 991,9 hPa 0,0 l/m 0 min 0 min 0 W/m 14,6 km/h (3 Bft) 97,83 %
10.01.2016 22:36 5,6 C 5,0 C 3,3 C 93 % 0 lf 991,9 hPa 0,0 l/m 0 min 0 min 0 W/m 16,7 km/h (3 Bft) 95,74 %
10.01.2016 22:38 5,6 C 5,0 C 3,3 C 93 % 0 lf 992,0 hPa 0,0 l/m 0 min 0 min 0 W/m 14,6 km/h (3 Bft) 93,62 %
10.01.2016 22:40 5,6 C 5,0 C 3,3 C 93 % 0 lf 992,0 hPa 0,0 l/m 0 min 0 min 0 W/m 16,7 km/h (3 Bft) 97,87 %
10.01.2016 22:42 5,6 C 5,0 C 3,3 C 93 % 0 lf 992,0 hPa 0,0 l/m 0 min 0 min 0 W/m 12,6 km/h (3 Bft) 97,87 %
10.01.2016 22:44 5,5 C 5,0 C 3,3 C 93 % 0 lf 992,0 hPa 0,0 l/m 0 min 0 min 0 W/m 10,5 km/h (2 Bft) 95,65 %
10.01.2016 22:46 5,5 C 5,0 C 3,3 C 93 % 0 lf 992,0 hPa 0,0 l/m 0 min 0 min 0 W/m 14,6 km/h (3 Bft) 97,87 %
10.01.2016 22:48 5,5 C 5,0 C 3,3 C 93 % 0 lf 991,9 hPa 0,0 l/m 0 min 0 min 0 W/m 10,5 km/h (2 Bft) 95,74 %
10.01.2016 22:50 5,4 C 5,0 C 3,3 C 93 % 0 lf 992,0 hPa 0,0 l/m 0 min 0 min 0 W/m 10,5 km/h (2 Bft) 91,49 %
10.01.2016 22:52 5,4 C 5,0 C 3,3 C 93 % 0 lf 992,0 hPa 0,0 l/m 0 min 0 min 0 W/m 12,6 km/h (3 Bft) 91,49 %
10.01.2016 22:54 5,4 C 5,0 C 3,3 C 93 % 0 lf 992,1 hPa 0,0 l/m 0 min 0 min 0 W/m 12,6 km/h (3 Bft) 89,36 %
10.01.2016 22:56 5,4 C 5,0 C 3,3 C 93 % 0 lf 992,0 hPa 0,0 l/m 0 min 0 min 0 W/m 12,6 km/h (3 Bft) 89,13 %
10.01.2016 22:58 5,4 C 5,0 C 3,3 C 93 % 0 lf 992,0 hPa 0,0 l/m 0 min 0 min 0 W/m 14,6 km/h (3 Bft) 95,74 %
10.01.2016 23:00 5,4 C 5,0 C 3,3 C 93 % 0 lf 992,0 hPa 0,0 l/m 0 min 0 min 0 W/m 14,6 km/h (3 Bft) 93,62 %
10.01.2016 23:02 5,4 C 5,0 C 3,3 C 93 % 0 lf 992,0 hPa 0,0 l/m 0 min 0 min 0 W/m 12,6 km/h (3 Bft) 89,36 %
10.01.2016 23:04 5,4 C 5,0 C 3,3 C 93 % 0 lf 992,1 hPa 0,0 l/m 0 min 0 min 0 W/m 16,7 km/h (3 Bft) 91,49 %
10.01.2016 23:06 5,4 C 5,0 C 3,3 C 93 % 0 lf 992,1 hPa 0,0 l/m 0 min 0 min 0 W/m 14,6 km/h (3 Bft) 91,49 %
10.01.2016 23:08 5,4 C 5,0 C 3,3 C 93 % 0 lf 992,1 hPa 0,0 l/m 0 min 0 min 0 W/m 18,8 km/h (3 Bft) 93,48 %
10.01.2016 23:10 5,4 C 5,0 C 3,3 C 93 % 0 lf 992,1 hPa 0,0 l/m 0 min 0 min 0 W/m 14,6 km/h (3 Bft) 91,49 %
10.01.2016 23:12 5,3 C 5,0 C 3,3 C 93 % 0 lf 992,1 hPa 0,0 l/m 0 min 0 min 0 W/m 12,6 km/h (3 Bft) 87,23 %
10.01.2016 23:14 5,4 C 5,0 C 3,3 C 93 % 0 lf 992,1 hPa 0,0 l/m 0 min 0 min 0 W/m 8,4 km/h (2 Bft) 93,62 %
10.01.2016 23:16 5,3 C 5,0 C 3,3 C 93 % 0 lf 992,2 hPa 0,0 l/m 0 min 0 min 0 W/m 14,6 km/h (3 Bft) 91,49 %
10.01.2016 23:18 5,3 C 5,0 C 3,3 C 93 % 0 lf 992,3 hPa 0,0 l/m 0 min 0 min 0 W/m 14,6 km/h (3 Bft) 89,36 %
10.01.2016 23:20 5,3 C 5,0 C 3,3 C 93 % 0 lf 992,3 hPa 0,0 l/m 0 min 0 min 0 W/m 12,6 km/h (3 Bft) 95,65 %
10.01.2016 23:22 5,3 C 4,4 C 2,8 C 93 % 0 lf 992,2 hPa 0,0 l/m 0 min 0 min 0 W/m 10,5 km/h (2 Bft) 93,62 %
10.01.2016 23:24 5,3 C 4,4 C 2,8 C 93 % 0 lf 992,2 hPa 0,0 l/m 0 min 0 min 0 W/m 12,6 km/h (3 Bft) 93,62 %
10.01.2016 23:26 5,3 C 4,4 C 2,8 C 93 % 0 lf 992,2 hPa 0,0 l/m 0 min 0 min 0 W/m 12,6 km/h (3 Bft) 93,62 %
10.01.2016 23:28 5,2 C 4,4 C 2,8 C 93 % 0 lf 992,1 hPa 0,0 l/m 0 min 0 min 0 W/m 10,5 km/h (2 Bft) 93,62 %
10.01.2016 23:30 5,2 C 5,0 C 2,8 C 93 % 0 lf 992,2 hPa 0,0 l/m 0 min 0 min 0 W/m 14,6 km/h (3 Bft) 91,49 %
10.01.2016 23:32 5,2 C 4,4 C 2,8 C 93 % 0 lf 992,2 hPa 0,0 l/m 0 min 0 min 0 W/m 12,6 km/h (3 Bft) 93,48 %
10.01.2016 23:34 5,2 C 5,0 C 2,8 C 93 % 0 lf 992,2 hPa 0,0 l/m 0 min 0 min 0 W/m 14,6 km/h (3 Bft) 93,62 %
10.01.2016 23:36 5,2 C 4,4 C 2,8 C 93 % 0 lf 992,2 hPa 0,0 l/m 0 min 0 min 0 W/m 14,6 km/h (3 Bft) 91,49 %
10.01.2016 23:38 5,1 C 4,4 C 2,8 C 93 % 1 lf 992,3 hPa 0,0 l/m 0 min 0 min 0 W/m 14,6 km/h (3 Bft) 93,62 %
10.01.2016 23:40 5,1 C 4,4 C 2,8 C 93 % 0 lf 992,4 hPa 0,0 l/m 0 min 0 min 0 W/m 12,6 km/h (3 Bft) 95,74 %
10.01.2016 23:42 5,1 C 4,4 C 2,8 C 93 % 0 lf 992,5 hPa 0,0 l/m 0 min 0 min 0 W/m 14,6 km/h (3 Bft) 95,65 %
10.01.2016 23:44 5,1 C 4,4 C 2,8 C 93 % 0 lf 992,5 hPa 0,0 l/m 0 min 0 min 0 W/m 12,6 km/h (3 Bft) 93,62 %
10.01.2016 23:46 5,1 C 4,4 C 2,8 C 93 % 0 lf 992,5 hPa 0,0 l/m 0 min 0 min 0 W/m 18,8 km/h (3 Bft) 95,74 %
10.01.2016 23:48 5,1 C 4,4 C 2,8 C 93 % 0 lf 992,5 hPa 0,0 l/m 0 min 0 min 0 W/m 16,7 km/h (3 Bft) 91,49 %
10.01.2016 23:50 5,1 C 4,4 C 2,8 C 93 % 0 lf 992,5 hPa 0,0 l/m 0 min 0 min 0 W/m 8,4 km/h (2 Bft) 97,87 %
10.01.2016 23:52 5,0 C 4,4 C 2,8 C 93 % 1 lf 992,4 hPa 0,0 l/m 0 min 0 min 0 W/m 12,6 km/h (3 Bft) 95,74 %
10.01.2016 23:54 5,0 C 4,4 C 2,8 C 93 % 0 lf 992,4 hPa 0,0 l/m 0 min 0 min 0 W/m 12,6 km/h (3 Bft) 91,30 %
10.01.2016 23:56 5,0 C 4,4 C 2,8 C 93 % 0 lf 992,3 hPa 0,0 l/m 0 min 0 min 0 W/m 12,6 km/h (3 Bft) 97,87 %
10.01.2016 23:58 5,0 C 4,4 C 2,8 C 93 % 1 lf 992,4 hPa 0,0 l/m 0 min 0 min 0 W/m 14,6 km/h (3 Bft) 97,87 %
_ Min-Zeit 00:00 23:22 23:22 14:10 00:00 06:12 - - - - 19:00 02:48
Minimum _ 4,7 C 4,4 C 2,8 C 68 % 0 lf 990,1 hPa - - - - 2,1 km/h (1 Bft) 85,11 %
_ Max-Zeit 14:08 12:32 13:12 06:26 05:56 00:00 02:38 09:00 02:26 12:32 00:12 01:50
Maximum _ 9,9 C 16,1 C 7,8 C 96 % 15 lf 994,7 hPa 0,2 l/m 2 min 2 min 258 W/m 39,7 km/h
SO (6 Bft)
100,00 %
Durchschnitt _ 6,7 C 7,3 C 4,8 C 88 % 4 lf 991,7 hPa #2,0 l/m #4:56 h #4:15 h 128 W/m 18,4 km/h (3 Bft) 95,96 %
© 2016 W. Hausmann